Time,TemperatureF,DewpointF,PressureIn,WindDirection,WindDirectionDegrees,WindSpeedMPH,WindSpeedGustMPH,Humidity,HourlyPrecipIn,Conditions,Clouds,dailyrainin,SoftwareType,DateUTC
2013-04-17 00:00:00,45.7,37.2,30.27,ENE,63,3.0,5.0,72,0.00,,,0.00,Wunderground v.1.15,2013-04-17 04:00:00,
2013-04-17 00:01:00,45.7,37.2,30.27,ENE,63,2.0,5.0,72,0.00,,,0.00,Wunderground v.1.15,2013-04-17 04:01:00,
2013-04-17 00:03:00,45.5,37.3,30.27,East,84,3.0,5.0,73,0.00,,,0.00,Wunderground v.1.15,2013-04-17 04:03:00,
2013-04-17 00:04:00,45.4,37.2,30.27,East,82,5.0,5.0,73,0.00,,,0.00,Wunderground v.1.15,2013-04-17 04:04:00,
2013-04-17 00:09:00,44.9,37.1,30.27,NE,50,3.0,5.0,74,0.00,,,0.00,Wunderground v.1.15,2013-04-17 04:09:00,
2013-04-17 00:10:00,44.8,37.0,30.26,NE,46,3.0,3.0,74,0.00,,,0.00,Wunderground v.1.15,2013-04-17 04:10:00,
2013-04-17 00:11:00,44.7,36.9,30.26,ENE,70,2.0,3.0,74,0.00,,,0.00,Wunderground v.1.15,2013-04-17 04:11:00,
2013-04-17 00:14:00,44.3,36.2,30.26,ENE,61,3.0,4.0,73,0.00,,,0.00,Wunderground v.1.15,2013-04-17 04:14:00,
2013-04-17 00:16:00,44.2,36.1,30.26,ENE,58,4.0,4.0,73,0.00,,,0.00,Wunderground v.1.15,2013-04-17 04:16:00,
2013-04-17 00:17:00,44.1,36.3,30.26,ENE,68,1.0,4.0,74,0.00,,,0.00,Wunderground v.1.15,2013-04-17 04:17:00,
2013-04-17 00:18:00,44.0,36.2,30.26,East,96,2.0,4.0,74,0.00,,,0.00,Wunderground v.1.15,2013-04-17 04:18:00,
2013-04-17 00:20:00,43.9,36.1,30.26,ENE,78,2.0,3.0,74,0.00,,,0.00,Wunderground v.1.15,2013-04-17 04:20:00,
2013-04-17 00:24:00,43.8,36.4,30.26,ENE,63,2.0,4.0,75,0.00,,,0.00,Wunderground v.1.15,2013-04-17 04:24:00,
2013-04-17 00:26:00,43.6,36.2,30.27,ENE,57,1.0,4.0,75,0.00,,,0.00,Wunderground v.1.15,2013-04-17 04:26:00,
2013-04-17 00:28:00,43.5,36.1,30.27,East,91,1.0,4.0,75,0.00,,,0.00,Wunderground v.1.15,2013-04-17 04:28:00,
2013-04-17 00:29:00,43.5,36.1,30.27,ESE,109,0.0,4.0,75,0.00,,,0.00,Wunderground v.1.15,2013-04-17 04:29:00,
2013-04-17 00:31:00,43.3,36.2,30.28,NE,53,4.0,4.0,76,0.00,,,0.00,Wunderground v.1.15,2013-04-17 04:31:00,
2013-04-17 00:35:00,43.2,35.8,30.28,ENE,67,1.0,4.0,75,0.00,,,0.00,Wunderground v.1.15,2013-04-17 04:35:00,
2013-04-17 00:37:00,43.2,35.8,30.28,East,89,2.0,4.0,75,0.00,,,0.00,Wunderground v.1.15,2013-04-17 04:37:00,
2013-04-17 00:39:00,43.1,35.7,30.28,East,81,0.0,4.0,75,0.00,,,0.00,Wunderground v.1.15,2013-04-17 04:39:00,
2013-04-17 00:40:00,42.9,35.5,30.28,East,95,1.0,2.0,75,0.00,,,0.00,Wunderground v.1.15,2013-04-17 04:40:00,
2013-04-17 00:43:00,42.9,35.9,30.28,East,84,2.0,2.0,76,0.00,,,0.00,Wunderground v.1.15,2013-04-17 04:43:00,
2013-04-17 00:44:00,42.8,35.4,30.28,ENE,61,1.0,2.0,75,0.00,,,0.00,Wunderground v.1.15,2013-04-17 04:44:00,
2013-04-17 00:45:00,42.8,35.4,30.28,NE,53,3.0,3.0,75,0.00,,,0.00,Wunderground v.1.15,2013-04-17 04:45:00,
2013-04-17 00:46:00,42.7,35.3,30.28,NE,53,1.0,3.0,75,0.00,,,0.00,Wunderground v.1.15,2013-04-17 04:46:00,
2013-04-17 00:48:00,42.7,35.3,30.28,ENE,63,1.0,3.0,75,0.00,,,0.00,Wunderground v.1.15,2013-04-17 04:48:00,
2013-04-17 00:49:00,42.7,35.3,30.27,ENE,60,1.0,3.0,75,0.00,,,0.00,Wunderground v.1.15,2013-04-17 04:49:00,
2013-04-17 00:51:00,42.6,35.2,30.27,ENE,65,2.0,2.0,75,0.00,,,0.00,Wunderground v.1.15,2013-04-17 04:51:00,
2013-04-17 00:54:00,42.5,35.1,30.28,ENE,77,0.0,2.0,75,0.00,,,0.00,Wunderground v.1.15,2013-04-17 04:54:00,
2013-04-17 00:56:00,42.4,35.0,30.28,ENE,77,0.0,2.0,75,0.00,,,0.00,Wunderground v.1.15,2013-04-17 04:56:00,
2013-04-17 00:57:00,42.4,35.0,30.28,ENE,78,1.0,2.0,75,0.00,,,0.00,Wunderground v.1.15,2013-04-17 04:57:00,
2013-04-17 00:58:00,42.4,35.0,30.28,East,84,1.0,2.0,75,0.00,,,0.00,Wunderground v.1.15,2013-04-17 04:58:00,
2013-04-17 01:00:00,42.3,34.9,30.28,ENE,74,1.0,1.0,75,0.00,,,0.00,Wunderground v.1.15,2013-04-17 05:00:00,
2013-04-17 01:02:00,42.2,34.8,30.28,ENE,60,1.0,3.0,75,0.00,,,0.00,Wunderground v.1.15,2013-04-17 05:02:00,
2013-04-17 01:03:00,42.2,34.8,30.28,ENE,62,1.0,3.0,75,0.00,,,0.00,Wunderground v.1.15,2013-04-17 05:03:00,
2013-04-17 01:06:00,42.0,34.6,30.29,ENE,70,1.0,3.0,75,0.00,,,0.00,Wunderground v.1.15,2013-04-17 05:06:00,
2013-04-17 01:08:00,41.9,34.6,30.28,ENE,72,0.0,3.0,75,0.00,,,0.00,Wunderground v.1.15,2013-04-17 05:08:00,
2013-04-17 01:09:00,41.9,34.6,30.28,ENE,69,0.0,3.0,75,0.00,,,0.00,Wunderground v.1.15,2013-04-17 05:09:00,
2013-04-17 01:10:00,41.9,34.6,30.28,ENE,66,1.0,1.0,75,0.00,,,0.00,Wunderground v.1.15,2013-04-17 05:10:00,
2013-04-17 01:12:00,41.7,34.4,30.28,NE,51,2.0,2.0,75,0.00,,,0.00,Wunderground v.1.15,2013-04-17 05:12:00,
2013-04-17 01:14:00,41.7,34.4,30.29,ENE,61,1.0,2.0,75,0.00,,,0.00,Wunderground v.1.15,2013-04-17 05:14:00,
2013-04-17 01:18:00,41.5,33.8,30.30,ENE,57,1.0,2.0,74,0.00,,,0.00,Wunderground v.1.15,2013-04-17 05:18:00,
2013-04-17 01:19:00,41.5,33.8,30.30,ENE,71,2.0,2.0,74,0.00,,,0.00,Wunderground v.1.15,2013-04-17 05:19:00,
2013-04-17 01:21:00,41.5,33.8,30.29,ENE,70,4.0,4.0,74,0.00,,,0.00,Wunderground v.1.15,2013-04-17 05:21:00,
2013-04-17 01:24:00,41.4,33.7,30.29,East,91,4.0,4.0,74,0.00,,,0.00,Wunderground v.1.15,2013-04-17 05:24:00,
2013-04-17 01:25:00,41.4,33.4,30.29,East,91,5.0,5.0,73,0.00,,,0.00,Wunderground v.1.15,2013-04-17 05:25:00,
2013-04-17 01:27:00,41.3,33.3,30.29,ENE,65,4.0,5.0,73,0.00,,,0.00,Wunderground v.1.15,2013-04-17 05:27:00,
2013-04-17 01:29:00,41.3,33.3,30.30,ENE,58,1.0,5.0,73,0.00,,,0.00,Wunderground v.1.15,2013-04-17 05:29:00,
2013-04-17 01:30:00,41.3,33.3,30.30,East,96,1.0,3.0,73,0.00,,,0.00,Wunderground v.1.15,2013-04-17 05:30:00,
2013-04-17 01:33:00,41.2,33.2,30.30,ENE,67,2.0,3.0,73,0.00,,,0.00,Wunderground v.1.15,2013-04-17 05:33:00,
2013-04-17 01:34:00,41.2,33.2,30.30,NE,56,2.0,3.0,73,0.00,,,0.00,Wunderground v.1.15,2013-04-17 05:34:00,
2013-04-17 01:35:00,41.1,33.1,30.30,ENE,57,3.0,3.0,73,0.00,,,0.00,Wunderground v.1.15,2013-04-17 05:35:00,
2013-04-17 01:37:00,41.0,33.0,30.30,ENE,60,1.0,3.0,73,0.00,,,0.00,Wunderground v.1.15,2013-04-17 05:37:00,
2013-04-17 01:38:00,41.0,33.0,30.31,ENE,74,2.0,3.0,73,0.00,,,0.00,Wunderground v.1.15,2013-04-17 05:38:00,
2013-04-17 01:39:00,40.9,32.9,30.31,ENE,72,2.0,3.0,73,0.00,,,0.00,Wunderground v.1.15,2013-04-17 05:39:00,
2013-04-17 01:41:00,40.9,32.9,30.31,ENE,67,3.0,3.0,73,0.00,,,0.00,Wunderground v.1.15,2013-04-17 05:41:00,
2013-04-17 01:42:00,40.8,32.8,30.31,ENE,63,1.0,3.0,73,0.00,,,0.00,Wunderground v.1.15,2013-04-17 05:42:00,
2013-04-17 01:44:00,40.8,32.5,30.31,NE,45,4.0,4.0,72,0.00,,,0.00,Wunderground v.1.15,2013-04-17 05:44:00,
2013-04-17 01:45:00,40.8,32.5,30.31,ENE,60,5.0,5.0,72,0.00,,,0.00,Wunderground v.1.15,2013-04-17 05:45:00,
2013-04-17 01:49:00,40.7,32.4,30.32,NE,53,3.0,5.0,72,0.00,,,0.00,Wunderground v.1.15,2013-04-17 05:49:00,
2013-04-17 01:51:00,40.6,32.3,30.32,East,79,4.0,4.0,72,0.00,,,0.00,Wunderground v.1.15,2013-04-17 05:51:00,
2013-04-17 01:53:00,40.6,32.3,30.33,ENE,77,1.0,4.0,72,0.00,,,0.00,Wunderground v.1.15,2013-04-17 05:53:00,
2013-04-17 01:55:00,40.5,32.2,30.33,ENE,60,1.0,5.0,72,0.00,,,0.00,Wunderground v.1.15,2013-04-17 05:55:00,
2013-04-17 01:56:00,40.5,32.2,30.33,ENE,67,2.0,5.0,72,0.00,,,0.00,Wunderground v.1.15,2013-04-17 05:56:00,
2013-04-17 01:58:00,40.4,32.1,30.33,ENE,67,2.0,5.0,72,0.00,,,0.00,Wunderground v.1.15,2013-04-17 05:58:00,
2013-04-17 02:01:00,40.3,32.0,30.33,ENE,75,2.0,3.0,72,0.00,,,0.00,Wunderground v.1.15,2013-04-17 06:01:00,
2013-04-17 02:02:00,40.2,32.2,30.33,East,82,1.0,3.0,73,0.00,,,0.00,Wunderground v.1.15,2013-04-17 06:02:00,
2013-04-17 02:03:00,40.1,32.1,30.33,ENE,70,1.0,3.0,73,0.00,,,0.00,Wunderground v.1.15,2013-04-17 06:03:00,
2013-04-17 02:06:00,40.1,32.1,30.33,ENE,63,4.0,5.0,73,0.00,,,0.00,Wunderground v.1.15,2013-04-17 06:06:00,
2013-04-17 02:07:00,40.1,32.1,30.33,ENE,68,1.0,5.0,73,0.00,,,0.00,Wunderground v.1.15,2013-04-17 06:07:00,
2013-04-17 02:08:00,40.0,32.0,30.33,ENE,76,1.0,5.0,73,0.00,,,0.00,Wunderground v.1.15,2013-04-17 06:08:00,
2013-04-17 02:11:00,39.9,31.9,30.33,ENE,63,3.0,5.0,73,0.00,,,0.00,Wunderground v.1.15,2013-04-17 06:11:00,
2013-04-17 02:12:00,40.0,32.0,30.33,ENE,72,2.0,5.0,73,0.00,,,0.00,Wunderground v.1.15,2013-04-17 06:12:00,
2013-04-17 02:14:00,40.0,32.0,30.33,NE,38,0.0,7.0,73,0.00,,,0.00,Wunderground v.1.15,2013-04-17 06:14:00,
2013-04-17 02:16:00,39.9,31.9,30.33,East,98,3.0,7.0,73,0.00,,,0.00,Wunderground v.1.15,2013-04-17 06:16:00,
2013-04-17 02:17:00,39.9,31.9,30.33,East,91,2.0,7.0,73,0.00,,,0.00,Wunderground v.1.15,2013-04-17 06:17:00,
2013-04-17 02:18:00,39.9,31.9,30.33,ESE,102,4.0,7.0,73,0.00,,,0.00,Wunderground v.1.15,2013-04-17 06:18:00,
2013-04-17 02:19:00,39.9,31.9,30.33,East,82,2.0,7.0,73,0.00,,,0.00,Wunderground v.1.15,2013-04-17 06:19:00,
2013-04-17 02:21:00,39.9,31.9,30.33,ENE,68,1.0,3.0,73,0.00,,,0.00,Wunderground v.1.15,2013-04-17 06:21:00,
2013-04-17 02:22:00,39.9,31.9,30.33,ENE,68,1.0,3.0,73,0.00,,,0.00,Wunderground v.1.15,2013-04-17 06:22:00,
2013-04-17 02:23:00,39.9,31.9,30.33,ENE,75,1.0,3.0,73,0.00,,,0.00,Wunderground v.1.15,2013-04-17 06:23:00,
2013-04-17 02:24:00,39.9,31.9,30.33,East,93,2.0,3.0,73,0.00,,,0.00,Wunderground v.1.15,2013-04-17 06:24:00,
2013-04-17 02:26:00,39.9,31.9,30.34,ESE,106,1.0,3.0,73,0.00,,,0.00,Wunderground v.1.15,2013-04-17 06:26:00,
2013-04-17 02:27:00,39.9,31.9,30.34,ENE,66,5.0,5.0,73,0.00,,,0.00,Wunderground v.1.15,2013-04-17 06:27:00,
2013-04-17 02:28:00,39.9,31.9,30.34,NE,53,5.0,5.0,73,0.00,,,0.00,Wunderground v.1.15,2013-04-17 06:28:00,
2013-04-17 02:29:00,39.9,31.9,30.34,ENE,76,2.0,5.0,73,0.00,,,0.00,Wunderground v.1.15,2013-04-17 06:29:00,
2013-04-17 02:31:00,39.9,31.6,30.34,ENE,63,0.0,3.0,72,0.00,,,0.00,Wunderground v.1.15,2013-04-17 06:31:00,
2013-04-17 02:33:00,39.9,31.9,30.34,ENE,63,2.0,3.0,73,0.00,,,0.00,Wunderground v.1.15,2013-04-17 06:33:00,
2013-04-17 02:34:00,40.0,31.7,30.33,ENE,68,1.0,4.0,72,0.00,,,0.00,Wunderground v.1.15,2013-04-17 06:34:00,
2013-04-17 02:37:00,40.0,31.7,30.33,ENE,58,1.0,4.0,72,0.00,,,0.00,Wunderground v.1.15,2013-04-17 06:37:00,
2013-04-17 02:38:00,40.0,32.0,30.33,East,92,2.0,4.0,73,0.00,,,0.00,Wunderground v.1.15,2013-04-17 06:38:00,
2013-04-17 02:39:00,40.0,31.7,30.33,ENE,68,3.0,4.0,72,0.00,,,0.00,Wunderground v.1.15,2013-04-17 06:39:00,
2013-04-17 02:42:00,40.0,31.7,30.33,NE,44,3.0,5.0,72,0.00,,,0.00,Wunderground v.1.15,2013-04-17 06:42:00,
2013-04-17 02:43:00,40.0,31.7,30.33,ENE,72,1.0,5.0,72,0.00,,,0.00,Wunderground v.1.15,2013-04-17 06:43:00,
2013-04-17 02:44:00,40.0,31.7,30.33,East,88,2.0,5.0,72,0.00,,,0.00,Wunderground v.1.15,2013-04-17 06:44:00,
2013-04-17 02:45:00,40.0,31.7,30.33,East,80,3.0,5.0,72,0.00,,,0.00,Wunderground v.1.15,2013-04-17 06:45:00,
2013-04-17 02:47:00,40.0,31.7,30.33,ENE,65,2.0,5.0,72,0.00,,,0.00,Wunderground v.1.15,2013-04-17 06:47:00,
2013-04-17 02:48:00,40.1,31.8,30.33,East,96,2.0,5.0,72,0.00,,,0.00,Wunderground v.1.15,2013-04-17 06:48:00,
2013-04-17 02:49:00,40.0,31.7,30.33,ENE,75,3.0,5.0,72,0.00,,,0.00,Wunderground v.1.15,2013-04-17 06:49:00,
2013-04-17 02:50:00,40.1,31.8,30.33,East,98,3.0,5.0,72,0.00,,,0.00,Wunderground v.1.15,2013-04-17 06:50:00,
2013-04-17 02:52:00,40.1,31.8,30.33,East,81,1.0,5.0,72,0.00,,,0.00,Wunderground v.1.15,2013-04-17 06:52:00,
2013-04-17 02:53:00,40.1,31.8,30.33,East,89,3.0,6.0,72,0.00,,,0.00,Wunderground v.1.15,2013-04-17 06:53:00,
2013-04-17 02:54:00,40.1,31.8,30.33,ENE,65,2.0,6.0,72,0.00,,,0.00,Wunderground v.1.15,2013-04-17 06:54:00,
2013-04-17 02:55:00,40.1,31.8,30.33,NE,44,2.0,6.0,72,0.00,,,0.00,Wunderground v.1.15,2013-04-17 06:55:00,
2013-04-17 02:56:00,40.1,31.8,30.34,East,90,4.0,6.0,72,0.00,,,0.00,Wunderground v.1.15,2013-04-17 06:56:00,
2013-04-17 02:57:00,40.2,31.9,30.34,East,81,2.0,6.0,72,0.00,,,0.00,Wunderground v.1.15,2013-04-17 06:57:00,
2013-04-17 02:58:00,40.2,31.9,30.34,ENE,75,2.0,6.0,72,0.00,,,0.00,Wunderground v.1.15,2013-04-17 06:58:00,
2013-04-17 02:59:00,40.2,31.9,30.34,ENE,67,1.0,6.0,72,0.00,,,0.00,Wunderground v.1.15,2013-04-17 06:59:00,
2013-04-17 03:00:00,40.2,31.9,30.34,ENE,78,2.0,3.0,72,0.00,,,0.00,Wunderground v.1.15,2013-04-17 07:00:00,
2013-04-17 03:02:00,40.2,31.9,30.35,NE,55,2.0,3.0,72,0.00,,,0.00,Wunderground v.1.15,2013-04-17 07:02:00,
2013-04-17 03:03:00,40.2,31.5,30.35,ENE,63,3.0,5.0,71,0.00,,,0.00,Wunderground v.1.15,2013-04-17 07:03:00,
2013-04-17 03:04:00,40.2,31.5,30.35,ENE,60,2.0,5.0,71,0.00,,,0.00,Wunderground v.1.15,2013-04-17 07:04:00,
2013-04-17 03:05:00,40.2,31.5,30.35,ENE,57,4.0,5.0,71,0.00,,,0.00,Wunderground v.1.15,2013-04-17 07:05:00,
2013-04-17 03:07:00,40.2,31.5,30.35,ENE,71,4.0,5.0,71,0.00,,,0.00,Wunderground v.1.15,2013-04-17 07:07:00,
2013-04-17 03:08:00,40.2,31.5,30.35,East,79,3.0,8.0,71,0.00,,,0.00,Wunderground v.1.15,2013-04-17 07:08:00,
2013-04-17 03:09:00,40.2,31.5,30.35,ENE,75,3.0,8.0,71,0.00,,,0.00,Wunderground v.1.15,2013-04-17 07:09:00,
2013-04-17 03:10:00,40.1,31.4,30.35,ESE,113,3.0,5.0,71,0.00,,,0.00,Wunderground v.1.15,2013-04-17 07:10:00,
2013-04-17 03:12:00,40.1,31.4,30.35,ENE,67,1.0,5.0,71,0.00,,,0.00,Wunderground v.1.15,2013-04-17 07:12:00,
2013-04-17 03:13:00,40.1,31.4,30.35,NE,55,3.0,5.0,71,0.00,,,0.00,Wunderground v.1.15,2013-04-17 07:13:00,
2013-04-17 03:14:00,40.1,31.4,30.35,NE,55,1.0,5.0,71,0.00,,,0.00,Wunderground v.1.15,2013-04-17 07:14:00,
2013-04-17 03:17:00,40.1,31.4,30.35,ENE,61,2.0,5.0,71,0.00,,,0.00,Wunderground v.1.15,2013-04-17 07:17:00,
2013-04-17 03:18:00,40.1,31.4,30.35,ENE,77,1.0,5.0,71,0.00,,,0.00,Wunderground v.1.15,2013-04-17 07:18:00,
2013-04-17 03:19:00,40.1,31.4,30.36,East,82,2.0,5.0,71,0.00,,,0.00,Wunderground v.1.15,2013-04-17 07:19:00,
2013-04-17 03:22:00,40.0,31.7,30.36,ENE,72,1.0,2.0,72,0.00,,,0.00,Wunderground v.1.15,2013-04-17 07:22:00,
2013-04-17 03:24:00,40.0,31.7,30.36,ENE,63,1.0,3.0,72,0.00,,,0.00,Wunderground v.1.15,2013-04-17 07:24:00,
2013-04-17 03:27:00,40.0,31.4,30.36,East,100,5.0,5.0,71,0.00,,,0.00,Wunderground v.1.15,2013-04-17 07:27:00,
2013-04-17 03:29:00,40.0,31.7,30.36,ENE,67,0.0,5.0,72,0.00,,,0.00,Wunderground v.1.15,2013-04-17 07:29:00,
2013-04-17 03:32:00,39.9,31.6,30.37,ENE,75,1.0,3.0,72,0.00,,,0.00,Wunderground v.1.15,2013-04-17 07:32:00,
2013-04-17 03:33:00,39.9,31.6,30.37,ENE,58,2.0,6.0,72,0.00,,,0.00,Wunderground v.1.15,2013-04-17 07:33:00,
2013-04-17 03:34:00,39.9,31.6,30.37,ENE,58,2.0,6.0,72,0.00,,,0.00,Wunderground v.1.15,2013-04-17 07:34:00,
2013-04-17 03:35:00,39.9,31.6,30.37,ENE,58,2.0,6.0,72,0.00,,,0.00,Wunderground v.1.15,2013-04-17 07:35:00,
2013-04-17 03:37:00,39.8,31.5,30.36,NE,45,3.0,6.0,72,0.00,,,0.00,Wunderground v.1.15,2013-04-17 07:37:00,
2013-04-17 03:38:00,39.8,31.5,30.36,ENE,58,3.0,6.0,72,0.00,,,0.00,Wunderground v.1.15,2013-04-17 07:38:00,
2013-04-17 03:39:00,39.8,31.5,30.35,ENE,72,2.0,8.0,72,0.00,,,0.00,Wunderground v.1.15,2013-04-17 07:39:00,
2013-04-17 03:40:00,39.8,31.5,30.35,ENE,74,2.0,2.0,72,0.00,,,0.00,Wunderground v.1.15,2013-04-17 07:40:00,
2013-04-17 03:42:00,39.8,31.5,30.35,ENE,70,3.0,9.0,72,0.00,,,0.00,Wunderground v.1.15,2013-04-17 07:42:00,
2013-04-17 03:44:00,39.7,31.4,30.36,ENE,58,3.0,9.0,72,0.00,,,0.00,Wunderground v.1.15,2013-04-17 07:44:00,
2013-04-17 03:45:00,39.7,31.4,30.36,ENE,74,1.0,9.0,72,0.00,,,0.00,Wunderground v.1.15,2013-04-17 07:45:00,
2013-04-17 03:47:00,39.7,31.4,30.36,ENE,65,1.0,9.0,72,0.00,,,0.00,Wunderground v.1.15,2013-04-17 07:47:00,
2013-04-17 03:49:00,39.7,31.8,30.36,ESE,118,4.0,9.0,73,0.00,,,0.00,Wunderground v.1.15,2013-04-17 07:49:00,
2013-04-17 03:50:00,39.6,31.7,30.36,ENE,78,2.0,4.0,73,0.00,,,0.00,Wunderground v.1.15,2013-04-17 07:50:00,
2013-04-17 03:52:00,39.5,31.6,30.36,ENE,68,1.0,4.0,73,0.00,,,0.00,Wunderground v.1.15,2013-04-17 07:52:00,
2013-04-17 03:54:00,39.5,31.6,30.36,ENE,57,3.0,6.0,73,0.00,,,0.00,Wunderground v.1.15,2013-04-17 07:54:00,
2013-04-17 03:55:00,39.5,31.6,30.37,ENE,74,2.0,6.0,73,0.00,,,0.00,Wunderground v.1.15,2013-04-17 07:55:00,
2013-04-17 03:57:00,39.4,31.5,30.36,ENE,60,2.0,6.0,73,0.00,,,0.00,Wunderground v.1.15,2013-04-17 07:57:00,
2013-04-17 03:59:00,39.3,31.4,30.37,ENE,63,2.0,6.0,73,0.00,,,0.00,Wunderground v.1.15,2013-04-17 07:59:00,
2013-04-17 04:00:00,39.3,31.4,30.37,ENE,63,2.0,3.0,73,0.00,,,0.00,Wunderground v.1.15,2013-04-17 08:00:00,
2013-04-17 04:01:00,39.3,31.4,30.37,NNW,347,1.0,3.0,73,0.00,,,0.00,Wunderground v.1.15,2013-04-17 08:01:00,
2013-04-17 04:03:00,39.3,31.7,30.36,NE,48,2.0,5.0,74,0.00,,,0.00,Wunderground v.1.15,2013-04-17 08:03:00,
2013-04-17 04:04:00,39.2,31.6,30.36,East,79,3.0,8.0,74,0.00,,,0.00,Wunderground v.1.15,2013-04-17 08:04:00,
2013-04-17 04:06:00,39.2,31.6,30.36,ENE,68,1.0,8.0,74,0.00,,,0.00,Wunderground v.1.15,2013-04-17 08:06:00,
2013-04-17 04:07:00,39.2,31.6,30.37,East,86,2.0,8.0,74,0.00,,,0.00,Wunderground v.1.15,2013-04-17 08:07:00,
2013-04-17 04:08:00,39.2,31.6,30.37,ENE,69,3.0,8.0,74,0.00,,,0.00,Wunderground v.1.15,2013-04-17 08:08:00,
2013-04-17 04:10:00,39.1,31.5,30.37,ENE,65,6.0,6.0,74,0.00,,,0.00,Wunderground v.1.15,2013-04-17 08:10:00,
2013-04-17 04:11:00,39.1,31.5,30.37,East,98,4.0,6.0,74,0.00,,,0.00,Wunderground v.1.15,2013-04-17 08:11:00,
2013-04-17 04:12:00,39.1,31.5,30.37,ENE,74,1.0,6.0,74,0.00,,,0.00,Wunderground v.1.15,2013-04-17 08:12:00,
2013-04-17 04:13:00,39.1,31.5,30.37,ENE,77,2.0,6.0,74,0.00,,,0.00,Wunderground v.1.15,2013-04-17 08:13:00,
2013-04-17 04:15:00,39.1,31.5,30.37,ENE,75,2.0,6.0,74,0.00,,,0.00,Wunderground v.1.15,2013-04-17 08:15:00,
2013-04-17 04:17:00,39.0,31.4,30.37,ENE,72,1.0,6.0,74,0.00,,,0.00,Wunderground v.1.15,2013-04-17 08:17:00,
2013-04-17 04:18:00,39.0,31.4,30.37,ENE,60,4.0,6.0,74,0.00,,,0.00,Wunderground v.1.15,2013-04-17 08:18:00,
2013-04-17 04:21:00,39.0,31.4,30.37,ENE,59,2.0,5.0,74,0.00,,,0.00,Wunderground v.1.15,2013-04-17 08:21:00,
2013-04-17 04:22:00,39.0,31.4,30.37,ENE,76,2.0,5.0,74,0.00,,,0.00,Wunderground v.1.15,2013-04-17 08:22:00,
2013-04-17 04:23:00,38.9,31.3,30.38,ENE,69,1.0,5.0,74,0.00,,,0.00,Wunderground v.1.15,2013-04-17 08:23:00,
2013-04-17 04:26:00,38.9,31.3,30.37,ENE,78,3.0,8.0,74,0.00,,,0.00,Wunderground v.1.15,2013-04-17 08:26:00,
2013-04-17 04:27:00,38.9,31.3,30.37,ENE,72,2.0,8.0,74,0.00,,,0.00,Wunderground v.1.15,2013-04-17 08:27:00,
2013-04-17 04:28:00,38.9,31.3,30.37,ENE,69,3.0,8.0,74,0.00,,,0.00,Wunderground v.1.15,2013-04-17 08:28:00,
2013-04-17 04:31:00,38.9,31.3,30.38,NE,55,2.0,4.0,74,0.00,,,0.00,Wunderground v.1.15,2013-04-17 08:31:00,
2013-04-17 04:33:00,38.9,31.3,30.38,NE,55,2.0,4.0,74,0.00,,,0.00,Wunderground v.1.15,2013-04-17 08:33:00,
2013-04-17 04:34:00,38.9,31.3,30.38,NNE,18,1.0,4.0,74,0.00,,,0.00,Wunderground v.1.15,2013-04-17 08:34:00,
2013-04-17 04:36:00,38.8,31.2,30.38,NNE,25,2.0,4.0,74,0.00,,,0.00,Wunderground v.1.15,2013-04-17 08:36:00,
2013-04-17 04:38:00,38.8,31.2,30.38,ENE,64,2.0,4.0,74,0.00,,,0.00,Wunderground v.1.15,2013-04-17 08:38:00,
2013-04-17 04:39:00,38.8,31.6,30.38,East,84,2.0,4.0,75,0.00,,,0.00,Wunderground v.1.15,2013-04-17 08:39:00,
2013-04-17 04:42:00,38.7,31.5,30.38,East,83,2.0,4.0,75,0.00,,,0.00,Wunderground v.1.15,2013-04-17 08:42:00,
2013-04-17 04:43:00,38.7,31.5,30.38,East,81,1.0,4.0,75,0.00,,,0.00,Wunderground v.1.15,2013-04-17 08:43:00,
2013-04-17 04:44:00,38.6,31.4,30.38,ENE,64,4.0,4.0,75,0.00,,,0.00,Wunderground v.1.15,2013-04-17 08:44:00,
2013-04-17 04:47:00,38.6,31.4,30.38,NE,53,4.0,8.0,75,0.00,,,0.00,Wunderground v.1.15,2013-04-17 08:47:00,
2013-04-17 04:48:00,38.6,31.4,30.38,NE,56,4.0,8.0,75,0.00,,,0.00,Wunderground v.1.15,2013-04-17 08:48:00,
2013-04-17 04:49:00,38.6,31.4,30.38,ENE,62,2.0,8.0,75,0.00,,,0.00,Wunderground v.1.15,2013-04-17 08:49:00,
2013-04-17 04:52:00,38.6,31.4,30.38,ENE,58,2.0,4.0,75,0.00,,,0.00,Wunderground v.1.15,2013-04-17 08:52:00,
2013-04-17 04:53:00,38.6,31.4,30.38,North,5,1.0,4.0,75,0.00,,,0.00,Wunderground v.1.15,2013-04-17 08:53:00,
2013-04-17 04:54:00,38.6,31.4,30.38,East,88,1.0,4.0,75,0.00,,,0.00,Wunderground v.1.15,2013-04-17 08:54:00,
2013-04-17 04:55:00,38.6,31.4,30.38,ENE,69,2.0,4.0,75,0.00,,,0.00,Wunderground v.1.15,2013-04-17 08:55:00,
2013-04-17 04:57:00,38.5,31.3,30.38,ENE,62,0.0,4.0,75,0.00,,,0.00,Wunderground v.1.15,2013-04-17 08:57:00,
2013-04-17 04:58:00,38.5,31.3,30.38,ENE,61,4.0,4.0,75,0.00,,,0.00,Wunderground v.1.15,2013-04-17 08:58:00,
2013-04-17 04:59:00,38.5,31.3,30.38,East,84,2.0,4.0,75,0.00,,,0.00,Wunderground v.1.15,2013-04-17 08:59:00,
2013-04-17 05:00:00,38.5,31.3,30.38,ENE,60,2.0,2.0,75,0.00,,,0.00,Wunderground v.1.15,2013-04-17 09:00:00,
2013-04-17 05:02:00,38.5,31.3,30.39,NE,53,1.0,2.0,75,0.00,,,0.00,Wunderground v.1.15,2013-04-17 09:02:00,
2013-04-17 05:03:00,38.5,31.3,30.39,East,86,1.0,2.0,75,0.00,,,0.00,Wunderground v.1.15,2013-04-17 09:03:00,
2013-04-17 05:04:00,38.5,31.3,30.39,ENE,66,2.0,2.0,75,0.00,,,0.00,Wunderground v.1.15,2013-04-17 09:04:00,
2013-04-17 05:05:00,38.5,31.3,30.39,ENE,68,2.0,2.0,75,0.00,,,0.00,Wunderground v.1.15,2013-04-17 09:05:00,
2013-04-17 05:08:00,38.5,31.3,30.39,East,79,1.0,5.0,75,0.00,,,0.00,Wunderground v.1.15,2013-04-17 09:08:00,
2013-04-17 05:09:00,38.5,31.3,30.38,ENE,68,2.0,5.0,75,0.00,,,0.00,Wunderground v.1.15,2013-04-17 09:09:00,
2013-04-17 05:10:00,38.5,31.3,30.38,ENE,68,2.0,2.0,75,0.00,,,0.00,Wunderground v.1.15,2013-04-17 09:10:00,
2013-04-17 05:13:00,38.5,31.3,30.38,NNE,33,2.0,5.0,75,0.00,,,0.00,Wunderground v.1.15,2013-04-17 09:13:00,
2013-04-17 05:14:00,38.5,31.3,30.38,ENE,65,3.0,5.0,75,0.00,,,0.00,Wunderground v.1.15,2013-04-17 09:14:00,
2013-04-17 05:15:00,38.5,31.3,30.38,ENE,74,2.0,5.0,75,0.00,,,0.00,Wunderground v.1.15,2013-04-17 09:15:00,
2013-04-17 05:16:00,38.5,31.3,30.38,ENE,60,2.0,5.0,75,0.00,,,0.00,Wunderground v.1.15,2013-04-17 09:16:00,
2013-04-17 05:18:00,38.5,31.3,30.38,East,96,1.0,5.0,75,0.00,,,0.00,Wunderground v.1.15,2013-04-17 09:18:00,
2013-04-17 05:20:00,38.5,31.3,30.38,East,91,0.0,2.0,75,0.00,,,0.00,Wunderground v.1.15,2013-04-17 09:20:00,
2013-04-17 05:22:00,38.5,31.3,30.38,ENE,65,2.0,3.0,75,0.00,,,0.00,Wunderground v.1.15,2013-04-17 09:22:00,
2013-04-17 05:23:00,38.5,31.3,30.38,NE,55,1.0,3.0,75,0.00,,,0.00,Wunderground v.1.15,2013-04-17 09:23:00,
2013-04-17 05:25:00,38.5,31.3,30.39,East,82,2.0,4.0,75,0.00,,,0.00,Wunderground v.1.15,2013-04-17 09:25:00,
2013-04-17 05:27:00,38.5,31.3,30.38,ENE,60,2.0,4.0,75,0.00,,,0.00,Wunderground v.1.15,2013-04-17 09:27:00,
2013-04-17 05:28:00,38.5,31.3,30.38,East,82,1.0,4.0,75,0.00,,,0.00,Wunderground v.1.15,2013-04-17 09:28:00,
2013-04-17 05:30:00,38.4,31.2,30.38,ENE,63,0.0,1.0,75,0.00,,,0.00,Wunderground v.1.15,2013-04-17 09:30:00,
2013-04-17 05:31:00,38.4,31.2,30.38,ENE,63,1.0,1.0,75,0.00,,,0.00,Wunderground v.1.15,2013-04-17 09:31:00,
2013-04-17 05:33:00,38.4,31.2,30.38,NE,38,0.0,2.0,75,0.00,,,0.00,Wunderground v.1.15,2013-04-17 09:33:00,
2013-04-17 05:35:00,38.4,31.2,30.39,NE,38,0.0,2.0,75,0.00,,,0.00,Wunderground v.1.15,2013-04-17 09:35:00,
2013-04-17 05:36:00,38.4,31.2,30.38,NE,39,0.0,2.0,75,0.00,,,0.00,Wunderground v.1.15,2013-04-17 09:36:00,
2013-04-17 05:38:00,38.3,31.1,30.39,NE,36,2.0,2.0,75,0.00,,,0.00,Wunderground v.1.15,2013-04-17 09:38:00,
2013-04-17 05:40:00,38.3,31.4,30.39,ENE,72,0.0,1.0,76,0.00,,,0.00,Wunderground v.1.15,2013-04-17 09:40:00,
2013-04-17 05:41:00,38.3,31.4,30.39,ENE,72,0.0,1.0,76,0.00,,,0.00,Wunderground v.1.15,2013-04-17 09:41:00,
2013-04-17 05:43:00,38.3,31.4,30.38,ENE,72,0.0,1.0,76,0.00,,,0.00,Wunderground v.1.15,2013-04-17 09:43:00,
2013-04-17 05:44:00,38.3,31.4,30.38,ENE,72,0.0,1.0,76,0.00,,,0.00,Wunderground v.1.15,2013-04-17 09:44:00,
2013-04-17 05:45:00,38.3,31.4,30.38,ENE,72,1.0,1.0,76,0.00,,,0.00,Wunderground v.1.15,2013-04-17 09:45:00,
2013-04-17 05:46:00,38.3,31.4,30.38,NE,53,0.0,2.0,76,0.00,,,0.00,Wunderground v.1.15,2013-04-17 09:46:00,
2013-04-17 05:48:00,38.3,31.4,30.38,ENE,69,1.0,3.0,76,0.00,,,0.00,Wunderground v.1.15,2013-04-17 09:48:00,
2013-04-17 05:49:00,38.3,31.4,30.38,East,79,2.0,3.0,76,0.00,,,0.00,Wunderground v.1.15,2013-04-17 09:49:00,
2013-04-17 05:50:00,38.3,31.4,30.38,ENE,59,1.0,2.0,76,0.00,,,0.00,Wunderground v.1.15,2013-04-17 09:50:00,
2013-04-17 05:51:00,38.3,31.4,30.38,ENE,67,1.0,3.0,76,0.00,,,0.00,Wunderground v.1.15,2013-04-17 09:51:00,
2013-04-17 05:53:00,38.3,31.1,30.38,NNE,15,1.0,3.0,75,0.00,,,0.00,Wunderground v.1.15,2013-04-17 09:53:00,
2013-04-17 05:54:00,38.3,31.1,30.38,ENE,65,1.0,3.0,75,0.00,,,0.00,Wunderground v.1.15,2013-04-17 09:54:00,
2013-04-17 05:55:00,38.3,31.1,30.38,ENE,65,1.0,3.0,75,0.00,,,0.00,Wunderground v.1.15,2013-04-17 09:55:00,
2013-04-17 05:56:00,38.3,31.1,30.38,East,86,3.0,4.0,75,0.00,,,0.00,Wunderground v.1.15,2013-04-17 09:56:00,
2013-04-17 05:57:00,38.3,31.1,30.38,East,84,1.0,4.0,75,0.00,,,0.00,Wunderground v.1.15,2013-04-17 09:57:00,
2013-04-17 05:58:00,38.2,31.0,30.38,ENE,76,0.0,4.0,75,0.00,,,0.00,Wunderground v.1.15,2013-04-17 09:58:00,
2013-04-17 05:59:00,38.2,31.0,30.38,ENE,67,2.0,4.0,75,0.00,,,0.00,Wunderground v.1.15,2013-04-17 09:59:00,
2013-04-17 06:00:00,38.1,30.9,30.38,ENE,60,0.0,1.0,75,0.00,,,0.00,Wunderground v.1.15,2013-04-17 10:00:00,
2013-04-17 06:01:00,38.1,30.9,30.39,NNE,33,3.0,3.0,75,0.00,,,0.00,Wunderground v.1.15,2013-04-17 10:01:00,
2013-04-17 06:02:00,38.1,30.9,30.39,ENE,75,1.0,3.0,75,0.00,,,0.00,Wunderground v.1.15,2013-04-17 10:02:00,
2013-04-17 06:03:00,38.0,30.8,30.38,NE,39,1.0,3.0,75,0.00,,,0.00,Wunderground v.1.15,2013-04-17 10:03:00,
2013-04-17 06:04:00,38.0,30.8,30.39,NE,38,0.0,3.0,75,0.00,,,0.00,Wunderground v.1.15,2013-04-17 10:04:00,
2013-04-17 06:05:00,38.0,30.8,30.39,NE,51,1.0,3.0,75,0.00,,,0.00,Wunderground v.1.15,2013-04-17 10:05:00,
2013-04-17 06:06:00,37.9,30.7,30.39,ENE,58,2.0,4.0,75,0.00,,,0.00,Wunderground v.1.15,2013-04-17 10:06:00,
2013-04-17 06:07:00,37.9,30.7,30.39,NE,38,3.0,4.0,75,0.00,,,0.00,Wunderground v.1.15,2013-04-17 10:07:00,
2013-04-17 06:09:00,37.9,30.7,30.39,East,86,1.0,4.0,75,0.00,,,0.00,Wunderground v.1.15,2013-04-17 10:09:00,
2013-04-17 06:11:00,37.8,30.9,30.38,East,90,1.0,3.0,76,0.00,,,0.00,Wunderground v.1.15,2013-04-17 10:11:00,
2013-04-17 06:12:00,37.7,30.8,30.38,ENE,77,1.0,3.0,76,0.00,,,0.00,Wunderground v.1.15,2013-04-17 10:12:00,
2013-04-17 06:14:00,37.7,30.8,30.38,ENE,74,1.0,3.0,76,0.00,,,0.00,Wunderground v.1.15,2013-04-17 10:14:00,
2013-04-17 06:17:00,37.6,30.7,30.38,ENE,68,0.0,3.0,76,0.00,,,0.00,Wunderground v.1.15,2013-04-17 10:17:00,
2013-04-17 06:19:00,37.5,30.6,30.38,NE,51,1.0,3.0,76,0.00,,,0.00,Wunderground v.1.15,2013-04-17 10:19:00,
2013-04-17 06:22:00,37.5,30.6,30.38,ENE,69,2.0,4.0,76,0.00,,,0.00,Wunderground v.1.15,2013-04-17 10:22:00,
2013-04-17 06:24:00,37.5,30.6,30.38,ENE,69,1.0,4.0,76,0.00,,,0.00,Wunderground v.1.15,2013-04-17 10:24:00,
2013-04-17 06:27:00,37.4,30.5,30.38,East,95,2.0,4.0,76,0.00,,,0.00,Wunderground v.1.15,2013-04-17 10:27:00,
2013-04-17 06:29:00,37.3,30.4,30.38,ENE,68,1.0,4.0,76,0.00,,,0.00,Wunderground v.1.15,2013-04-17 10:29:00,
2013-04-17 06:30:00,37.3,30.4,30.38,ENE,68,0.0,1.0,76,0.00,,,0.00,Wunderground v.1.15,2013-04-17 10:30:00,
2013-04-17 06:32:00,37.3,30.4,30.38,East,81,2.0,3.0,76,0.00,,,0.00,Wunderground v.1.15,2013-04-17 10:32:00,
2013-04-17 06:34:00,37.2,30.3,30.39,ENE,69,1.0,3.0,76,0.00,,,0.00,Wunderground v.1.15,2013-04-17 10:34:00,
2013-04-17 06:35:00,37.2,30.3,30.39,ENE,68,0.0,3.0,76,0.00,,,0.00,Wunderground v.1.15,2013-04-17 10:35:00,
2013-04-17 06:37:00,37.2,30.3,30.39,ENE,68,1.0,3.0,76,0.00,,,0.00,Wunderground v.1.15,2013-04-17 10:37:00,
2013-04-17 06:38:00,37.2,30.3,30.39,ENE,68,0.0,3.0,76,0.00,,,0.00,Wunderground v.1.15,2013-04-17 10:38:00,
2013-04-17 06:39:00,37.1,30.2,30.39,ENE,68,1.0,3.0,76,0.00,,,0.00,Wunderground v.1.15,2013-04-17 10:39:00,
2013-04-17 06:40:00,37.1,30.2,30.39,ENE,68,0.0,2.0,76,0.00,,,0.00,Wunderground v.1.15,2013-04-17 10:40:00,
2013-04-17 06:42:00,37.1,30.2,30.39,ENE,62,1.0,2.0,76,0.00,,,0.00,Wunderground v.1.15,2013-04-17 10:42:00,
2013-04-17 06:43:00,37.1,30.2,30.39,ENE,62,2.0,2.0,76,0.00,,,0.00,Wunderground v.1.15,2013-04-17 10:43:00,
2013-04-17 06:44:00,37.0,30.5,30.39,ENE,72,0.0,2.0,77,0.00,,,0.00,Wunderground v.1.15,2013-04-17 10:44:00,
2013-04-17 06:45:00,37.0,30.5,30.39,ENE,70,1.0,2.0,77,0.00,,,0.00,Wunderground v.1.15,2013-04-17 10:45:00,
2013-04-17 06:48:00,37.0,30.5,30.39,ENE,70,0.0,2.0,77,0.00,,,0.00,Wunderground v.1.15,2013-04-17 10:48:00,
2013-04-17 06:50:00,36.9,30.4,30.39,ENE,69,0.0,0.0,77,0.00,,,0.00,Wunderground v.1.15,2013-04-17 10:50:00,
2013-04-17 06:51:00,36.8,30.3,30.39,East,88,1.0,1.0,77,0.00,,,0.00,Wunderground v.1.15,2013-04-17 10:51:00,
2013-04-17 06:53:00,36.7,30.2,30.39,East,86,0.0,1.0,77,0.00,,,0.00,Wunderground v.1.15,2013-04-17 10:53:00,
2013-04-17 06:55:00,36.7,30.2,30.39,East,91,1.0,2.0,77,0.00,,,0.00,Wunderground v.1.15,2013-04-17 10:55:00,
2013-04-17 06:56:00,36.7,30.2,30.39,East,95,1.0,2.0,77,0.00,,,0.00,Wunderground v.1.15,2013-04-17 10:56:00,
2013-04-17 06:58:00,36.7,30.2,30.39,East,95,0.0,2.0,77,0.00,,,0.00,Wunderground v.1.15,2013-04-17 10:58:00,
2013-04-17 06:59:00,36.7,30.2,30.39,East,95,0.0,2.0,77,0.00,,,0.00,Wunderground v.1.15,2013-04-17 10:59:00,
2013-04-17 07:01:00,36.7,30.2,30.39,ENE,78,1.0,2.0,77,0.00,,,0.00,Wunderground v.1.15,2013-04-17 11:01:00,
2013-04-17 07:03:00,36.8,30.6,30.40,East,84,1.0,3.0,78,0.00,,,0.00,Wunderground v.1.15,2013-04-17 11:03:00,
2013-04-17 07:04:00,36.7,30.5,30.40,East,86,1.0,3.0,78,0.00,,,0.00,Wunderground v.1.15,2013-04-17 11:04:00,
2013-04-17 07:05:00,36.8,30.3,30.40,East,85,0.0,3.0,77,0.00,,,0.00,Wunderground v.1.15,2013-04-17 11:05:00,
2013-04-17 07:06:00,36.9,30.4,30.40,East,85,0.0,3.0,77,0.00,,,0.00,Wunderground v.1.15,2013-04-17 11:06:00,
2013-04-17 07:10:00,36.9,30.4,30.40,East,84,1.0,1.0,77,0.00,,,0.00,Wunderground v.1.15,2013-04-17 11:10:00,
2013-04-17 07:11:00,36.9,30.4,30.40,East,89,1.0,1.0,77,0.00,,,0.00,Wunderground v.1.15,2013-04-17 11:11:00,
2013-04-17 07:12:00,36.9,30.4,30.40,East,101,1.0,1.0,77,0.00,,,0.00,Wunderground v.1.15,2013-04-17 11:12:00,
2013-04-17 07:15:00,37.1,30.6,30.40,East,98,2.0,2.0,77,0.00,,,0.00,Wunderground v.1.15,2013-04-17 11:15:00,
2013-04-17 07:16:00,37.1,30.6,30.40,East,88,1.0,2.0,77,0.00,,,0.00,Wunderground v.1.15,2013-04-17 11:16:00,
2013-04-17 07:17:00,37.1,30.6,30.40,East,90,1.0,2.0,77,0.00,,,0.00,Wunderground v.1.15,2013-04-17 11:17:00,
2013-04-17 07:20:00,37.1,30.6,30.40,East,88,0.0,1.0,77,0.00,,,0.00,Wunderground v.1.15,2013-04-17 11:20:00,
2013-04-17 07:21:00,37.2,30.7,30.40,East,88,0.0,1.0,77,0.00,,,0.00,Wunderground v.1.15,2013-04-17 11:21:00,
2013-04-17 07:22:00,37.2,30.7,30.40,East,88,1.0,1.0,77,0.00,,,0.00,Wunderground v.1.15,2013-04-17 11:22:00,
2013-04-17 07:25:00,37.3,30.7,30.40,East,96,2.0,3.0,77,0.00,,,0.00,Wunderground v.1.15,2013-04-17 11:25:00,
2013-04-17 07:26:00,37.3,30.7,30.40,East,96,3.0,3.0,77,0.00,,,0.00,Wunderground v.1.15,2013-04-17 11:26:00,
2013-04-17 07:27:00,37.3,30.7,30.40,East,83,1.0,3.0,77,0.00,,,0.00,Wunderground v.1.15,2013-04-17 11:27:00,
2013-04-17 07:30:00,37.4,30.8,30.40,ENE,58,1.0,1.0,77,0.00,,,0.00,Wunderground v.1.15,2013-04-17 11:30:00,
2013-04-17 07:31:00,37.4,30.8,30.40,NE,56,2.0,2.0,77,0.00,,,0.00,Wunderground v.1.15,2013-04-17 11:31:00,
2013-04-17 07:32:00,37.5,30.9,30.40,ENE,59,0.0,3.0,77,0.00,,,0.00,Wunderground v.1.15,2013-04-17 11:32:00,
2013-04-17 07:36:00,37.6,30.7,30.40,ENE,60,4.0,4.0,76,0.00,,,0.00,Wunderground v.1.15,2013-04-17 11:36:00,
2013-04-17 07:37:00,37.6,30.7,30.40,NE,38,4.0,5.0,76,0.00,,,0.00,Wunderground v.1.15,2013-04-17 11:37:00,
2013-04-17 07:41:00,37.8,30.6,30.40,ENE,67,1.0,6.0,75,0.00,,,0.00,Wunderground v.1.15,2013-04-17 11:41:00,
2013-04-17 07:42:00,37.8,30.6,30.40,East,86,2.0,6.0,75,0.00,,,0.00,Wunderground v.1.15,2013-04-17 11:42:00,
2013-04-17 07:43:00,37.8,30.9,30.40,East,80,3.0,6.0,76,0.00,,,0.00,Wunderground v.1.15,2013-04-17 11:43:00,
2013-04-17 07:46:00,38.0,30.8,30.40,NE,56,3.0,6.0,75,0.00,,,0.00,Wunderground v.1.15,2013-04-17 11:46:00,
2013-04-17 07:47:00,38.2,31.0,30.40,East,89,3.0,6.0,75,0.00,,,0.00,Wunderground v.1.15,2013-04-17 11:47:00,
2013-04-17 07:48:00,38.2,31.0,30.40,East,81,1.0,6.0,75,0.00,,,0.00,Wunderground v.1.15,2013-04-17 11:48:00,
2013-04-17 07:51:00,38.4,31.2,30.40,East,82,1.0,4.0,75,0.00,,,0.00,Wunderground v.1.15,2013-04-17 11:51:00,
2013-04-17 07:53:00,38.5,30.9,30.40,ENE,65,2.0,5.0,74,0.00,,,0.00,Wunderground v.1.15,2013-04-17 11:53:00,
2013-04-17 07:56:00,38.5,30.9,30.41,East,94,3.0,5.0,74,0.00,,,0.00,Wunderground v.1.15,2013-04-17 11:56:00,
2013-04-17 07:58:00,38.5,30.9,30.40,ENE,62,5.0,5.0,74,0.00,,,0.00,Wunderground v.1.15,2013-04-17 11:58:00,
2013-04-17 08:01:00,38.7,31.1,30.40,ENE,73,0.0,2.0,74,0.00,,,0.00,Wunderground v.1.15,2013-04-17 12:01:00,
2013-04-17 08:03:00,38.8,31.2,30.40,NE,52,2.0,3.0,74,0.00,,,0.00,Wunderground v.1.15,2013-04-17 12:03:00,
2013-04-17 08:04:00,38.9,31.0,30.40,ENE,76,2.0,5.0,73,0.00,,,0.00,Wunderground v.1.15,2013-04-17 12:04:00,
2013-04-17 08:07:00,38.9,31.0,30.40,NE,44,4.0,5.0,73,0.00,,,0.00,Wunderground v.1.15,2013-04-17 12:07:00,
2013-04-17 08:08:00,38.9,30.6,30.40,NNW,339,4.0,5.0,72,0.00,,,0.00,Wunderground v.1.15,2013-04-17 12:08:00,
2013-04-17 08:09:00,38.9,30.6,30.40,ESE,104,3.0,6.0,72,0.00,,,0.00,Wunderground v.1.15,2013-04-17 12:09:00,
2013-04-17 08:12:00,39.1,31.2,30.40,ENE,63,3.0,6.0,73,0.00,,,0.00,Wunderground v.1.15,2013-04-17 12:12:00,
2013-04-17 08:13:00,39.2,30.9,30.40,NE,56,4.0,6.0,72,0.00,,,0.00,Wunderground v.1.15,2013-04-17 12:13:00,
2013-04-17 08:14:00,39.2,30.9,30.40,ENE,66,5.0,6.0,72,0.00,,,0.00,Wunderground v.1.15,2013-04-17 12:14:00,
2013-04-17 08:15:00,39.2,30.6,30.40,NE,53,3.0,6.0,71,0.00,,,0.00,Wunderground v.1.15,2013-04-17 12:15:00,
2013-04-17 08:17:00,39.3,30.7,30.40,ENE,64,4.0,10.0,71,0.00,,,0.00,Wunderground v.1.15,2013-04-17 12:17:00,
2013-04-17 08:18:00,39.4,30.8,30.39,East,90,4.0,10.0,71,0.00,,,0.00,Wunderground v.1.15,2013-04-17 12:18:00,
2013-04-17 08:19:00,39.4,30.8,30.40,East,82,2.0,10.0,71,0.00,,,0.00,Wunderground v.1.15,2013-04-17 12:19:00,
2013-04-17 08:20:00,39.5,30.9,30.40,NNE,20,5.0,6.0,71,0.00,,,0.00,Wunderground v.1.15,2013-04-17 12:20:00,
2013-04-17 08:22:00,39.5,30.5,30.40,ENE,64,2.0,11.0,70,0.00,,,0.00,Wunderground v.1.15,2013-04-17 12:22:00,
2013-04-17 08:23:00,39.5,30.5,30.40,ENE,68,5.0,11.0,70,0.00,,,0.00,Wunderground v.1.15,2013-04-17 12:23:00,
2013-04-17 08:24:00,39.5,30.5,30.40,ENE,60,3.0,11.0,70,0.00,,,0.00,Wunderground v.1.15,2013-04-17 12:24:00,
2013-04-17 08:25:00,39.6,30.6,30.40,East,97,3.0,11.0,70,0.00,,,0.00,Wunderground v.1.15,2013-04-17 12:25:00,
2013-04-17 08:28:00,39.9,30.9,30.40,NE,49,3.0,11.0,70,0.00,,,0.00,Wunderground v.1.15,2013-04-17 12:28:00,
2013-04-17 08:29:00,39.9,30.9,30.40,NE,53,2.0,11.0,70,0.00,,,0.00,Wunderground v.1.15,2013-04-17 12:29:00,
2013-04-17 08:30:00,40.1,30.7,30.39,East,81,3.0,5.0,69,0.00,,,0.00,Wunderground v.1.15,2013-04-17 12:30:00,
2013-04-17 08:33:00,40.2,30.5,30.39,ENE,78,4.0,11.0,68,0.00,,,0.00,Wunderground v.1.15,2013-04-17 12:33:00,
2013-04-17 08:34:00,40.2,30.5,30.39,ENE,77,2.0,11.0,68,0.00,,,0.00,Wunderground v.1.15,2013-04-17 12:34:00,
2013-04-17 08:35:00,40.3,30.9,30.39,NE,54,5.0,11.0,69,0.00,,,0.00,Wunderground v.1.15,2013-04-17 12:35:00,
2013-04-17 08:36:00,40.3,30.9,30.39,ENE,72,5.0,11.0,69,0.00,,,0.00,Wunderground v.1.15,2013-04-17 12:36:00,
2013-04-17 08:38:00,40.4,30.7,30.40,ENE,68,3.0,11.0,68,0.00,,,0.00,Wunderground v.1.15,2013-04-17 12:38:00,
2013-04-17 08:39:00,40.5,30.8,30.40,ENE,67,2.0,11.0,68,0.00,,,0.00,Wunderground v.1.15,2013-04-17 12:39:00,
2013-04-17 08:40:00,40.5,30.8,30.40,East,84,2.0,4.0,68,0.00,,,0.00,Wunderground v.1.15,2013-04-17 12:40:00,
2013-04-17 08:41:00,40.6,30.9,30.40,East,100,2.0,6.0,68,0.00,,,0.00,Wunderground v.1.15,2013-04-17 12:41:00,
2013-04-17 08:44:00,40.7,31.0,30.40,ENE,61,0.0,7.0,68,0.00,,,0.00,Wunderground v.1.15,2013-04-17 12:44:00,
2013-04-17 08:45:00,40.9,31.1,30.40,ENE,67,1.0,7.0,68,0.00,,,0.00,Wunderground v.1.15,2013-04-17 12:45:00,
2013-04-17 08:46:00,41.0,31.2,30.40,ENE,75,1.0,7.0,68,0.00,,,0.00,Wunderground v.1.15,2013-04-17 12:46:00,
2013-04-17 08:49:00,41.5,31.7,30.40,ENE,68,2.0,7.0,68,0.00,,,0.00,Wunderground v.1.15,2013-04-17 12:49:00,
2013-04-17 08:50:00,41.5,31.7,30.40,NE,43,2.0,3.0,68,0.00,,,0.00,Wunderground v.1.15,2013-04-17 12:50:00,
2013-04-17 08:51:00,41.7,31.5,30.40,NE,53,5.0,8.0,67,0.00,,,0.00,Wunderground v.1.15,2013-04-17 12:51:00,
2013-04-17 08:54:00,41.7,31.2,30.40,ENE,72,1.0,8.0,66,0.00,,,0.00,Wunderground v.1.15,2013-04-17 12:54:00,
2013-04-17 08:55:00,41.7,31.2,30.40,East,81,2.0,8.0,66,0.00,,,0.00,Wunderground v.1.15,2013-04-17 12:55:00,
2013-04-17 08:57:00,41.8,31.6,30.40,NE,51,2.0,8.0,67,0.00,,,0.00,Wunderground v.1.15,2013-04-17 12:57:00,
2013-04-17 08:59:00,42.1,31.6,30.40,East,79,2.0,8.0,66,0.00,,,0.00,Wunderground v.1.15,2013-04-17 12:59:00,
2013-04-17 09:00:00,42.1,31.6,30.40,NE,51,2.0,2.0,66,0.00,,,0.00,Wunderground v.1.15,2013-04-17 13:00:00,
2013-04-17 09:01:00,42.2,31.6,30.40,ENE,62,3.0,3.0,66,0.00,,,0.00,Wunderground v.1.15,2013-04-17 13:01:00,
2013-04-17 09:02:00,42.2,31.6,30.40,East,89,3.0,3.0,66,0.00,,,0.00,Wunderground v.1.15,2013-04-17 13:02:00,
2013-04-17 09:04:00,42.4,31.5,30.40,ENE,60,3.0,4.0,65,0.00,,,0.00,Wunderground v.1.15,2013-04-17 13:04:00,
2013-04-17 09:05:00,42.4,31.5,30.40,ESE,108,5.0,6.0,65,0.00,,,0.00,Wunderground v.1.15,2013-04-17 13:05:00,
2013-04-17 09:06:00,42.4,31.5,30.40,NE,53,4.0,6.0,65,0.00,,,0.00,Wunderground v.1.15,2013-04-17 13:06:00,
2013-04-17 09:07:00,42.3,31.4,30.40,ESE,105,4.0,6.0,65,0.00,,,0.00,Wunderground v.1.15,2013-04-17 13:07:00,
2013-04-17 09:10:00,42.4,31.8,30.40,ESE,110,6.0,6.0,66,0.00,,,0.00,Wunderground v.1.15,2013-04-17 13:10:00,
2013-04-17 09:11:00,42.5,31.6,30.40,East,86,4.0,6.0,65,0.00,,,0.00,Wunderground v.1.15,2013-04-17 13:11:00,
2013-04-17 09:12:00,42.6,31.7,30.40,ENE,62,4.0,6.0,65,0.00,,,0.00,Wunderground v.1.15,2013-04-17 13:12:00,
2013-04-17 09:13:00,42.6,31.7,30.40,NE,53,4.0,6.0,65,0.00,,,0.00,Wunderground v.1.15,2013-04-17 13:13:00,
2013-04-17 09:15:00,42.6,31.3,30.39,ENE,70,3.0,7.0,64,0.00,,,0.00,Wunderground v.1.15,2013-04-17 13:15:00,
2013-04-17 09:16:00,42.6,31.3,30.39,ENE,71,2.0,7.0,64,0.00,,,0.00,Wunderground v.1.15,2013-04-17 13:16:00,
2013-04-17 09:17:00,42.5,31.2,30.39,ENE,69,3.0,8.0,64,0.00,,,0.00,Wunderground v.1.15,2013-04-17 13:17:00,
2013-04-17 09:18:00,42.5,31.2,30.39,ENE,73,5.0,8.0,64,0.00,,,0.00,Wunderground v.1.15,2013-04-17 13:18:00,
2013-04-17 09:20:00,42.6,31.3,30.39,East,89,3.0,6.0,64,0.00,,,0.00,Wunderground v.1.15,2013-04-17 13:20:00,
2013-04-17 09:21:00,42.6,31.3,30.39,ENE,65,2.0,6.0,64,0.00,,,0.00,Wunderground v.1.15,2013-04-17 13:21:00,
2013-04-17 09:23:00,42.6,31.3,30.39,ENE,77,4.0,8.0,64,0.00,,,0.00,Wunderground v.1.15,2013-04-17 13:23:00,
2013-04-17 09:24:00,42.6,30.9,30.39,East,89,4.0,8.0,63,0.00,,,0.00,Wunderground v.1.15,2013-04-17 13:24:00,
2013-04-17 09:25:00,42.7,31.4,30.39,East,84,4.0,9.0,64,0.00,,,0.00,Wunderground v.1.15,2013-04-17 13:25:00,
2013-04-17 09:26:00,42.7,31.4,30.39,East,79,4.0,9.0,64,0.00,,,0.00,Wunderground v.1.15,2013-04-17 13:26:00,
2013-04-17 09:28:00,42.8,31.5,30.39,ENE,65,3.0,9.0,64,0.00,,,0.00,Wunderground v.1.15,2013-04-17 13:28:00,
2013-04-17 09:29:00,42.9,31.6,30.39,ENE,67,2.0,9.0,64,0.00,,,0.00,Wunderground v.1.15,2013-04-17 13:29:00,
2013-04-17 09:30:00,43.0,31.6,30.39,ENE,67,3.0,4.0,64,0.00,,,0.00,Wunderground v.1.15,2013-04-17 13:30:00,
2013-04-17 09:31:00,43.1,31.7,30.39,ENE,75,4.0,4.0,64,0.00,,,0.00,Wunderground v.1.15,2013-04-17 13:31:00,
2013-04-17 09:32:00,43.1,31.7,30.39,ENE,67,3.0,4.0,64,0.00,,,0.00,Wunderground v.1.15,2013-04-17 13:32:00,
2013-04-17 09:33:00,43.3,31.9,30.39,ENE,60,4.0,5.0,64,0.00,,,0.00,Wunderground v.1.15,2013-04-17 13:33:00,
2013-04-17 09:34:00,43.3,31.9,30.38,East,80,4.0,5.0,64,0.00,,,0.00,Wunderground v.1.15,2013-04-17 13:34:00,
2013-04-17 09:36:00,43.5,31.7,30.38,East,97,4.0,7.0,63,0.00,,,0.00,Wunderground v.1.15,2013-04-17 13:36:00,
2013-04-17 09:37:00,43.5,32.1,30.38,ENE,72,3.0,7.0,64,0.00,,,0.00,Wunderground v.1.15,2013-04-17 13:37:00,
2013-04-17 09:38:00,43.6,31.8,30.38,ENE,68,2.0,7.0,63,0.00,,,0.00,Wunderground v.1.15,2013-04-17 13:38:00,
2013-04-17 09:39:00,43.6,31.8,30.38,ESE,103,6.0,7.0,63,0.00,,,0.00,Wunderground v.1.15,2013-04-17 13:39:00,
2013-04-17 09:41:00,43.7,31.9,30.38,East,84,5.0,8.0,63,0.00,,,0.00,Wunderground v.1.15,2013-04-17 13:41:00,
2013-04-17 09:42:00,43.8,32.0,30.38,East,93,5.0,8.0,63,0.00,,,0.00,Wunderground v.1.15,2013-04-17 13:42:00,
2013-04-17 09:44:00,43.9,32.1,30.39,East,91,6.0,8.0,63,0.00,,,0.00,Wunderground v.1.15,2013-04-17 13:44:00,
2013-04-17 09:46:00,43.8,31.6,30.38,East,84,5.0,8.0,62,0.00,,,0.00,Wunderground v.1.15,2013-04-17 13:46:00,
2013-04-17 09:47:00,43.9,31.7,30.38,East,94,4.0,8.0,62,0.00,,,0.00,Wunderground v.1.15,2013-04-17 13:47:00,
2013-04-17 09:49:00,43.9,31.7,30.38,NE,56,5.0,8.0,62,0.00,,,0.00,Wunderground v.1.15,2013-04-17 13:49:00,
2013-04-17 09:50:00,43.9,31.7,30.38,East,98,5.0,5.0,62,0.00,,,0.00,Wunderground v.1.15,2013-04-17 13:50:00,
2013-04-17 09:51:00,44.0,31.8,30.39,ENE,70,3.0,6.0,62,0.00,,,0.00,Wunderground v.1.15,2013-04-17 13:51:00,
2013-04-17 09:52:00,44.0,31.8,30.38,ENE,75,3.0,6.0,62,0.00,,,0.00,Wunderground v.1.15,2013-04-17 13:52:00,
2013-04-17 09:54:00,44.1,31.9,30.38,East,79,4.0,7.0,62,0.00,,,0.00,Wunderground v.1.15,2013-04-17 13:54:00,
2013-04-17 09:55:00,44.2,32.0,30.38,ENE,64,5.0,7.0,62,0.00,,,0.00,Wunderground v.1.15,2013-04-17 13:55:00,
2013-04-17 09:56:00,44.3,31.7,30.39,ENE,62,3.0,7.0,61,0.00,,,0.00,Wunderground v.1.15,2013-04-17 13:56:00,
2013-04-17 09:57:00,44.3,31.7,30.39,East,94,3.0,7.0,61,0.00,,,0.00,Wunderground v.1.15,2013-04-17 13:57:00,
2013-04-17 09:59:00,44.5,32.3,30.39,ENE,73,3.0,7.0,62,0.00,,,0.00,Wunderground v.1.15,2013-04-17 13:59:00,
2013-04-17 10:00:00,44.6,32.0,30.39,East,91,6.0,7.0,61,0.00,,,0.00,Wunderground v.1.15,2013-04-17 14:00:00,
2013-04-17 10:02:00,44.6,31.6,30.39,ENE,75,4.0,7.0,60,0.00,,,0.00,Wunderground v.1.15,2013-04-17 14:02:00,
2013-04-17 10:03:00,44.6,31.6,30.39,East,87,5.0,7.0,60,0.00,,,0.00,Wunderground v.1.15,2013-04-17 14:03:00,
2013-04-17 10:04:00,44.5,31.1,30.39,ENE,67,5.0,9.0,59,0.00,,,0.00,Wunderground v.1.15,2013-04-17 14:04:00,
2013-04-17 10:05:00,44.5,31.1,30.39,East,101,7.0,9.0,59,0.00,,,0.00,Wunderground v.1.15,2013-04-17 14:05:00,
2013-04-17 10:07:00,44.6,31.6,30.38,East,93,6.0,9.0,60,0.00,,,0.00,Wunderground v.1.15,2013-04-17 14:07:00,
2013-04-17 10:08:00,44.7,31.7,30.38,ENE,67,3.0,9.0,60,0.00,,,0.00,Wunderground v.1.15,2013-04-17 14:08:00,
2013-04-17 10:09:00,44.7,31.2,30.38,ENE,64,4.0,9.0,59,0.00,,,0.00,Wunderground v.1.15,2013-04-17 14:09:00,
2013-04-17 10:10:00,44.7,31.2,30.38,East,96,5.0,6.0,59,0.00,,,0.00,Wunderground v.1.15,2013-04-17 14:10:00,
2013-04-17 10:12:00,44.8,31.8,30.38,ENE,61,3.0,8.0,60,0.00,,,0.00,Wunderground v.1.15,2013-04-17 14:12:00,
2013-04-17 10:13:00,44.8,31.3,30.38,ENE,60,6.0,9.0,59,0.00,,,0.00,Wunderground v.1.15,2013-04-17 14:13:00,
2013-04-17 10:14:00,44.8,31.3,30.38,ENE,77,3.0,9.0,59,0.00,,,0.00,Wunderground v.1.15,2013-04-17 14:14:00,
2013-04-17 10:15:00,44.7,31.2,30.38,ENE,67,3.0,9.0,59,0.00,,,0.00,Wunderground v.1.15,2013-04-17 14:15:00,
2013-04-17 10:17:00,44.9,31.4,30.38,East,84,3.0,9.0,59,0.00,,,0.00,Wunderground v.1.15,2013-04-17 14:17:00,
2013-04-17 10:18:00,44.9,31.4,30.38,NE,56,4.0,9.0,59,0.00,,,0.00,Wunderground v.1.15,2013-04-17 14:18:00,
2013-04-17 10:20:00,45.1,31.2,30.38,East,83,8.0,8.0,58,0.00,,,0.00,Wunderground v.1.15,2013-04-17 14:20:00,
2013-04-17 10:23:00,45.1,31.2,30.38,East,93,7.0,8.0,58,0.00,,,0.00,Wunderground v.1.15,2013-04-17 14:23:00,
2013-04-17 10:24:00,45.2,31.7,30.38,NE,49,7.0,8.0,59,0.00,,,0.00,Wunderground v.1.15,2013-04-17 14:24:00,
2013-04-17 10:25:00,45.3,31.8,30.38,East,94,5.0,8.0,59,0.00,,,0.00,Wunderground v.1.15,2013-04-17 14:25:00,
2013-04-17 10:28:00,45.7,32.2,30.38,ESE,103,6.0,8.0,59,0.00,,,0.00,Wunderground v.1.15,2013-04-17 14:28:00,
2013-04-17 10:29:00,45.8,32.3,30.38,ENE,67,2.0,8.0,59,0.00,,,0.00,Wunderground v.1.15,2013-04-17 14:29:00,
2013-04-17 10:30:00,46.0,32.0,30.38,NW,309,3.0,4.0,58,0.00,,,0.00,Wunderground v.1.15,2013-04-17 14:30:00,
2013-04-17 10:31:00,46.1,32.1,30.37,ENE,62,2.0,4.0,58,0.00,,,0.00,Wunderground v.1.15,2013-04-17 14:31:00,
2013-04-17 10:33:00,46.2,31.8,30.37,ENE,62,2.0,7.0,57,0.00,,,0.00,Wunderground v.1.15,2013-04-17 14:33:00,
2013-04-17 10:34:00,46.2,31.4,30.37,East,79,5.0,7.0,56,0.00,,,0.00,Wunderground v.1.15,2013-04-17 14:34:00,
2013-04-17 10:35:00,46.2,31.8,30.37,ENE,72,5.0,7.0,57,0.00,,,0.00,Wunderground v.1.15,2013-04-17 14:35:00,
2013-04-17 10:37:00,46.2,31.8,30.37,East,84,2.0,7.0,57,0.00,,,0.00,Wunderground v.1.15,2013-04-17 14:37:00,
2013-04-17 10:38:00,46.2,31.8,30.37,East,95,5.0,7.0,57,0.00,,,0.00,Wunderground v.1.15,2013-04-17 14:38:00,
2013-04-17 10:39:00,46.2,31.8,30.37,ENE,75,7.0,7.0,57,0.00,,,0.00,Wunderground v.1.15,2013-04-17 14:39:00,
2013-04-17 10:40:00,46.3,31.9,30.37,East,87,4.0,5.0,57,0.00,,,0.00,Wunderground v.1.15,2013-04-17 14:40:00,
2013-04-17 10:42:00,46.5,32.1,30.38,ENE,68,2.0,6.0,57,0.00,,,0.00,Wunderground v.1.15,2013-04-17 14:42:00,
2013-04-17 10:43:00,46.5,32.1,30.38,East,100,5.0,6.0,57,0.00,,,0.00,Wunderground v.1.15,2013-04-17 14:43:00,
2013-04-17 10:44:00,46.5,32.1,30.38,East,87,5.0,6.0,57,0.00,,,0.00,Wunderground v.1.15,2013-04-17 14:44:00,
2013-04-17 10:45:00,46.5,31.6,30.38,East,79,2.0,8.0,56,0.00,,,0.00,Wunderground v.1.15,2013-04-17 14:45:00,
2013-04-17 10:48:00,46.5,31.6,30.38,East,87,3.0,8.0,56,0.00,,,0.00,Wunderground v.1.15,2013-04-17 14:48:00,
2013-04-17 10:49:00,46.6,32.2,30.38,ESE,105,1.0,8.0,57,0.00,,,0.00,Wunderground v.1.15,2013-04-17 14:49:00,
2013-04-17 10:50:00,46.9,32.9,30.38,East,84,4.0,5.0,58,0.00,,,0.00,Wunderground v.1.15,2013-04-17 14:50:00,
2013-04-17 10:53:00,47.1,32.2,30.38,East,100,3.0,6.0,56,0.00,,,0.00,Wunderground v.1.15,2013-04-17 14:53:00,
2013-04-17 10:54:00,47.2,32.3,30.38,East,80,2.0,7.0,56,0.00,,,0.00,Wunderground v.1.15,2013-04-17 14:54:00,
2013-04-17 10:55:00,47.3,32.4,30.38,ENE,61,2.0,7.0,56,0.00,,,0.00,Wunderground v.1.15,2013-04-17 14:55:00,
2013-04-17 10:56:00,47.5,33.0,30.38,East,100,4.0,7.0,57,0.00,,,0.00,Wunderground v.1.15,2013-04-17 14:56:00,
2013-04-17 10:58:00,47.6,32.2,30.38,ENE,58,2.0,7.0,55,0.00,,,0.00,Wunderground v.1.15,2013-04-17 14:58:00,
2013-04-17 10:59:00,47.6,32.2,30.38,ENE,57,4.0,7.0,55,0.00,,,0.00,Wunderground v.1.15,2013-04-17 14:59:00,
2013-04-17 11:00:00,47.6,32.2,30.38,ENE,67,3.0,3.0,55,0.00,,,0.00,Wunderground v.1.15,2013-04-17 15:00:00,
2013-04-17 11:02:00,47.6,32.7,30.38,ENE,63,4.0,5.0,56,0.00,,,0.00,Wunderground v.1.15,2013-04-17 15:02:00,
2013-04-17 11:03:00,47.6,31.8,30.37,East,88,2.0,5.0,54,0.00,,,0.00,Wunderground v.1.15,2013-04-17 15:03:00,
2013-04-17 11:04:00,47.6,33.1,30.38,ESE,106,4.0,5.0,57,0.00,,,0.00,Wunderground v.1.15,2013-04-17 15:04:00,
2013-04-17 11:06:00,47.8,32.4,30.38,ENE,65,3.0,5.0,55,0.00,,,0.00,Wunderground v.1.15,2013-04-17 15:06:00,
2013-04-17 11:07:00,47.9,32.0,30.37,NNE,33,1.0,5.0,54,0.00,,,0.00,Wunderground v.1.15,2013-04-17 15:07:00,
2013-04-17 11:08:00,48.0,32.1,30.37,SE,128,5.0,5.0,54,0.00,,,0.00,Wunderground v.1.15,2013-04-17 15:08:00,
2013-04-17 11:09:00,48.0,32.1,30.37,NE,56,7.0,8.0,54,0.00,,,0.00,Wunderground v.1.15,2013-04-17 15:09:00,
2013-04-17 11:11:00,48.0,32.6,30.37,ENE,62,5.0,6.0,55,0.00,,,0.00,Wunderground v.1.15,2013-04-17 15:11:00,
2013-04-17 11:12:00,48.0,32.1,30.37,ENE,63,4.0,6.0,54,0.00,,,0.00,Wunderground v.1.15,2013-04-17 15:12:00,
2013-04-17 11:13:00,48.0,32.1,30.37,East,91,8.0,8.0,54,0.00,,,0.00,Wunderground v.1.15,2013-04-17 15:13:00,
2013-04-17 11:14:00,47.9,31.6,30.37,ENE,69,2.0,8.0,53,0.00,,,0.00,Wunderground v.1.15,2013-04-17 15:14:00,
2013-04-17 11:15:00,47.9,31.6,30.37,ENE,69,2.0,8.0,53,0.00,,,0.00,Wunderground v.1.15,2013-04-17 15:15:00,
2013-04-17 11:17:00,47.8,32.4,30.37,East,84,1.0,8.0,55,0.00,,,0.00,Wunderground v.1.15,2013-04-17 15:17:00,
2013-04-17 11:18:00,47.9,32.5,30.37,East,91,4.0,8.0,55,0.00,,,0.00,Wunderground v.1.15,2013-04-17 15:18:00,
2013-04-17 11:20:00,48.1,32.2,30.37,ENE,70,2.0,3.0,54,0.00,,,0.00,Wunderground v.1.15,2013-04-17 15:20:00,
2013-04-17 11:22:00,48.3,32.9,30.37,NE,56,4.0,6.0,55,0.00,,,0.00,Wunderground v.1.15,2013-04-17 15:22:00,
2013-04-17 11:23:00,48.3,33.3,30.37,East,84,6.0,7.0,56,0.00,,,0.00,Wunderground v.1.15,2013-04-17 15:23:00,
2013-04-17 11:25:00,48.6,33.1,30.37,ENE,68,4.0,7.0,55,0.00,,,0.00,Wunderground v.1.15,2013-04-17 15:25:00,
2013-04-17 11:28:00,48.8,32.4,30.36,NE,56,3.0,8.0,53,0.00,,,0.00,Wunderground v.1.15,2013-04-17 15:28:00,
2013-04-17 11:29:00,48.8,32.9,30.36,East,86,3.0,8.0,54,0.00,,,0.00,Wunderground v.1.15,2013-04-17 15:29:00,
2013-04-17 11:30:00,48.8,32.9,30.36,East,84,6.0,6.0,54,0.00,,,0.00,Wunderground v.1.15,2013-04-17 15:30:00,
2013-04-17 11:33:00,48.9,32.5,30.36,SE,132,3.0,6.0,53,0.00,,,0.00,Wunderground v.1.15,2013-04-17 15:33:00,
2013-04-17 11:34:00,49.1,32.7,30.36,East,82,8.0,10.0,53,0.00,,,0.00,Wunderground v.1.15,2013-04-17 15:34:00,
2013-04-17 11:35:00,49.1,32.7,30.36,ESE,111,4.0,10.0,53,0.00,,,0.00,Wunderground v.1.15,2013-04-17 15:35:00,
2013-04-17 11:38:00,49.0,32.6,30.36,ENE,75,2.0,10.0,53,0.00,,,0.00,Wunderground v.1.15,2013-04-17 15:38:00,
2013-04-17 11:39:00,48.9,32.5,30.36,East,84,4.0,10.0,53,0.00,,,0.00,Wunderground v.1.15,2013-04-17 15:39:00,
2013-04-17 11:41:00,49.0,33.1,30.36,ENE,75,4.0,4.0,54,0.00,,,0.00,Wunderground v.1.15,2013-04-17 15:41:00,
2013-04-17 11:42:00,49.2,33.7,30.36,East,91,4.0,4.0,55,0.00,,,0.00,Wunderground v.1.15,2013-04-17 15:42:00,
2013-04-17 11:43:00,49.3,32.9,30.35,ENE,77,2.0,5.0,53,0.00,,,0.00,Wunderground v.1.15,2013-04-17 15:43:00,
2013-04-17 11:44:00,49.5,33.5,30.35,East,93,2.0,5.0,54,0.00,,,0.00,Wunderground v.1.15,2013-04-17 15:44:00,
2013-04-17 11:46:00,49.8,34.3,30.35,East,91,2.0,5.0,55,0.00,,,0.00,Wunderground v.1.15,2013-04-17 15:46:00,
2013-04-17 11:47:00,49.9,33.9,30.35,East,96,5.0,7.0,54,0.00,,,0.00,Wunderground v.1.15,2013-04-17 15:47:00,
2013-04-17 11:48:00,50.1,33.6,30.35,East,84,2.0,7.0,53,0.00,,,0.00,Wunderground v.1.15,2013-04-17 15:48:00,
2013-04-17 11:49:00,50.1,33.1,30.35,ENE,73,1.0,3.0,52,0.00,,,0.00,Wunderground v.1.15,2013-04-17 15:49:00,
2013-04-17 11:51:00,50.2,33.2,30.35,East,91,3.0,4.0,52,0.00,,,0.00,Wunderground v.1.15,2013-04-17 15:51:00,
2013-04-17 11:52:00,50.3,34.3,30.35,SE,128,1.0,4.0,54,0.00,,,0.00,Wunderground v.1.15,2013-04-17 15:52:00,
2013-04-17 11:53:00,50.5,34.5,30.36,SE,127,3.0,4.0,54,0.00,,,0.00,Wunderground v.1.15,2013-04-17 15:53:00,
2013-04-17 11:55:00,50.8,34.3,30.36,ESE,108,3.0,4.0,53,0.00,,,0.00,Wunderground v.1.15,2013-04-17 15:55:00,
2013-04-17 11:56:00,51.0,33.5,30.36,SSW,198,2.0,6.0,51,0.00,,,0.00,Wunderground v.1.15,2013-04-17 15:56:00,
2013-04-17 11:57:00,51.1,34.1,30.36,NNE,32,1.0,6.0,52,0.00,,,0.00,Wunderground v.1.15,2013-04-17 15:57:00,
2013-04-17 11:58:00,51.2,33.7,30.36,SSE,158,2.0,6.0,51,0.00,,,0.00,Wunderground v.1.15,2013-04-17 15:58:00,
2013-04-17 11:59:00,51.2,33.7,30.36,SSE,148,4.0,6.0,51,0.00,,,0.00,Wunderground v.1.15,2013-04-17 15:59:00,
2013-04-17 12:00:00,51.3,33.8,30.36,ENE,77,1.0,2.0,51,0.00,,,0.00,Wunderground v.1.15,2013-04-17 16:00:00,
2013-04-17 12:01:00,51.6,34.5,30.36,East,84,3.0,8.0,52,0.00,,,0.00,Wunderground v.1.15,2013-04-17 16:01:00,
2013-04-17 12:02:00,51.5,34.0,30.36,ENE,68,3.0,8.0,51,0.00,,,0.00,Wunderground v.1.15,2013-04-17 16:02:00,
2013-04-17 12:03:00,51.3,33.8,30.36,ENE,72,2.0,8.0,51,0.00,,,0.00,Wunderground v.1.15,2013-04-17 16:03:00,
2013-04-17 12:04:00,51.2,33.7,30.36,ENE,67,3.0,8.0,51,0.00,,,0.00,Wunderground v.1.15,2013-04-17 16:04:00,
2013-04-17 12:05:00,51.2,33.2,30.36,East,89,3.0,8.0,50,0.00,,,0.00,Wunderground v.1.15,2013-04-17 16:05:00,
2013-04-17 12:06:00,51.0,34.0,30.36,East,98,2.0,8.0,52,0.00,,,0.00,Wunderground v.1.15,2013-04-17 16:06:00,
2013-04-17 12:08:00,51.0,34.0,30.36,ENE,60,3.0,8.0,52,0.00,,,0.00,Wunderground v.1.15,2013-04-17 16:08:00,
2013-04-17 12:09:00,51.1,33.6,30.36,ENE,75,3.0,8.0,51,0.00,,,0.00,Wunderground v.1.15,2013-04-17 16:09:00,
2013-04-17 12:10:00,51.0,33.0,30.37,ENE,63,2.0,3.0,50,0.00,,,0.00,Wunderground v.1.15,2013-04-17 16:10:00,
2013-04-17 12:12:00,51.1,34.1,30.37,SSE,165,2.0,3.0,52,0.00,,,0.00,Wunderground v.1.15,2013-04-17 16:12:00,
2013-04-17 12:13:00,51.3,34.3,30.37,WSW,248,1.0,3.0,52,0.00,,,0.00,Wunderground v.1.15,2013-04-17 16:13:00,
2013-04-17 12:14:00,51.5,34.4,30.37,East,85,2.0,3.0,52,0.00,,,0.00,Wunderground v.1.15,2013-04-17 16:14:00,
2013-04-17 12:15:00,51.9,34.8,30.37,East,100,3.0,5.0,52,0.00,,,0.00,Wunderground v.1.15,2013-04-17 16:15:00,
2013-04-17 12:17:00,52.0,34.4,30.37,ENE,59,4.0,5.0,51,0.00,,,0.00,Wunderground v.1.15,2013-04-17 16:17:00,
2013-04-17 12:18:00,52.0,33.9,30.37,East,99,2.0,5.0,50,0.00,,,0.00,Wunderground v.1.15,2013-04-17 16:18:00,
2013-04-17 12:19:00,51.9,34.8,30.37,ESE,103,1.0,5.0,52,0.00,,,0.00,Wunderground v.1.15,2013-04-17 16:19:00,
2013-04-17 12:21:00,52.0,34.9,30.37,East,79,3.0,5.0,52,0.00,,,0.00,Wunderground v.1.15,2013-04-17 16:21:00,
2013-04-17 12:22:00,52.1,35.0,30.37,NE,53,2.0,5.0,52,0.00,,,0.00,Wunderground v.1.15,2013-04-17 16:22:00,
2013-04-17 12:23:00,52.2,35.6,30.36,East,100,2.0,5.0,53,0.00,,,0.00,Wunderground v.1.15,2013-04-17 16:23:00,
2013-04-17 12:24:00,52.3,35.7,30.36,East,98,3.0,5.0,53,0.00,,,0.00,Wunderground v.1.15,2013-04-17 16:24:00,
2013-04-17 12:27:00,52.2,34.1,30.36,ESE,105,3.0,5.0,50,0.00,,,0.00,Wunderground v.1.15,2013-04-17 16:27:00,
2013-04-17 12:28:00,52.1,35.0,30.36,ESE,111,0.0,5.0,52,0.00,,,0.00,Wunderground v.1.15,2013-04-17 16:28:00,
2013-04-17 12:29:00,52.2,36.0,30.36,ENE,76,3.0,5.0,54,0.00,,,0.00,Wunderground v.1.15,2013-04-17 16:29:00,
2013-04-17 12:32:00,52.3,34.7,30.36,SE,134,2.0,7.0,51,0.00,,,0.00,Wunderground v.1.15,2013-04-17 16:32:00,
2013-04-17 12:34:00,52.5,34.4,30.36,ENE,74,3.0,7.0,50,0.00,,,0.00,Wunderground v.1.15,2013-04-17 16:34:00,
2013-04-17 12:35:00,52.5,35.4,30.36,ESE,106,7.0,7.0,52,0.00,,,0.00,Wunderground v.1.15,2013-04-17 16:35:00,
2013-04-17 12:37:00,52.2,33.6,30.36,ENE,58,2.0,7.0,49,0.00,,,0.00,Wunderground v.1.15,2013-04-17 16:37:00,
2013-04-17 12:39:00,52.3,35.2,30.36,WSW,256,3.0,7.0,52,0.00,,,0.00,Wunderground v.1.15,2013-04-17 16:39:00,
2013-04-17 12:40:00,52.4,34.8,30.36,ESE,103,2.0,3.0,51,0.00,,,0.00,Wunderground v.1.15,2013-04-17 16:40:00,
2013-04-17 12:42:00,52.7,35.1,30.36,SW,214,3.0,3.0,51,0.00,,,0.00,Wunderground v.1.15,2013-04-17 16:42:00,
2013-04-17 12:43:00,52.7,35.1,30.36,SSW,208,1.0,3.0,51,0.00,,,0.00,Wunderground v.1.15,2013-04-17 16:43:00,
2013-04-17 12:45:00,53.1,34.9,30.36,SSW,201,1.0,3.0,50,0.00,,,0.00,Wunderground v.1.15,2013-04-17 16:45:00,
2013-04-17 12:48:00,53.7,35.5,30.36,ESE,113,2.0,4.0,50,0.00,,,0.00,Wunderground v.1.15,2013-04-17 16:48:00,
2013-04-17 12:50:00,54.1,35.3,30.36,SSE,162,4.0,7.0,49,0.00,,,0.00,Wunderground v.1.15,2013-04-17 16:50:00,
2013-04-17 12:51:00,54.3,36.0,30.36,SE,143,4.0,7.0,50,0.00,,,0.00,Wunderground v.1.15,2013-04-17 16:51:00,
2013-04-17 12:53:00,54.5,35.7,30.35,SE,138,1.0,7.0,49,0.00,,,0.00,Wunderground v.1.15,2013-04-17 16:53:00,
2013-04-17 12:55:00,54.8,37.0,30.35,SE,145,1.0,7.0,51,0.00,,,0.00,Wunderground v.1.15,2013-04-17 16:55:00,
2013-04-17 12:57:00,55.0,35.7,30.35,SSE,157,0.0,7.0,48,0.00,,,0.00,Wunderground v.1.15,2013-04-17 16:57:00,
2013-04-17 12:58:00,55.1,36.8,30.35,SSE,156,4.0,7.0,50,0.00,,,0.00,Wunderground v.1.15,2013-04-17 16:58:00,
2013-04-17 13:00:00,55.2,35.8,30.35,East,83,4.0,4.0,48,0.00,,,0.00,Wunderground v.1.15,2013-04-17 17:00:00,
2013-04-17 13:02:00,55.0,36.2,30.35,East,98,3.0,6.0,49,0.00,,,0.00,Wunderground v.1.15,2013-04-17 17:02:00,
2013-04-17 13:03:00,54.8,34.9,30.35,South,172,0.0,6.0,47,0.00,,,0.00,Wunderground v.1.15,2013-04-17 17:03:00,
2013-04-17 13:05:00,54.5,35.2,30.35,South,174,1.0,6.0,48,0.00,,,0.00,Wunderground v.1.15,2013-04-17 17:05:00,
2013-04-17 13:07:00,54.6,35.8,30.35,ENE,70,2.0,6.0,49,0.00,,,0.00,Wunderground v.1.15,2013-04-17 17:07:00,
2013-04-17 13:08:00,54.7,35.9,30.35,SSE,162,1.0,6.0,49,0.00,,,0.00,Wunderground v.1.15,2013-04-17 17:08:00,
2013-04-17 13:09:00,54.7,35.9,30.35,SE,138,1.0,6.0,49,0.00,,,0.00,Wunderground v.1.15,2013-04-17 17:09:00,
2013-04-17 13:10:00,54.8,36.0,30.34,ESE,103,7.0,7.0,49,0.00,,,0.00,Wunderground v.1.15,2013-04-17 17:10:00,
2013-04-17 13:12:00,54.4,35.6,30.34,ENE,75,3.0,8.0,49,0.00,,,0.00,Wunderground v.1.15,2013-04-17 17:12:00,
2013-04-17 13:13:00,54.3,36.5,30.34,ENE,75,1.0,8.0,51,0.00,,,0.00,Wunderground v.1.15,2013-04-17 17:13:00,
2013-04-17 13:14:00,54.3,36.5,30.34,East,86,5.0,8.0,51,0.00,,,0.00,Wunderground v.1.15,2013-04-17 17:14:00,
2013-04-17 13:16:00,54.1,35.9,30.34,ENE,63,4.0,8.0,50,0.00,,,0.00,Wunderground v.1.15,2013-04-17 17:16:00,
2013-04-17 13:18:00,54.1,36.9,30.35,East,91,4.0,8.0,52,0.00,,,0.00,Wunderground v.1.15,2013-04-17 17:18:00,
2013-04-17 13:19:00,54.0,35.8,30.35,ENE,70,2.0,8.0,50,0.00,,,0.00,Wunderground v.1.15,2013-04-17 17:19:00,
2013-04-17 13:21:00,53.8,35.6,30.35,East,91,3.0,5.0,50,0.00,,,0.00,Wunderground v.1.15,2013-04-17 17:21:00,
2013-04-17 13:22:00,53.7,35.5,30.35,ESE,106,1.0,5.0,50,0.00,,,0.00,Wunderground v.1.15,2013-04-17 17:22:00,
2013-04-17 13:23:00,53.4,35.2,30.35,ESE,110,1.0,5.0,50,0.00,,,0.00,Wunderground v.1.15,2013-04-17 17:23:00,
2013-04-17 13:24:00,53.3,35.1,30.35,ESE,110,0.0,5.0,50,0.00,,,0.00,Wunderground v.1.15,2013-04-17 17:24:00,
2013-04-17 13:27:00,53.5,35.3,30.35,WSW,252,2.0,5.0,50,0.00,,,0.00,Wunderground v.1.15,2013-04-17 17:27:00,
2013-04-17 13:28:00,53.8,36.6,30.35,SSW,198,3.0,5.0,52,0.00,,,0.00,Wunderground v.1.15,2013-04-17 17:28:00,
2013-04-17 13:29:00,53.9,36.7,30.35,SSE,167,4.0,5.0,52,0.00,,,0.00,Wunderground v.1.15,2013-04-17 17:29:00,
2013-04-17 13:32:00,54.3,36.0,30.35,ENE,68,5.0,7.0,50,0.00,,,0.00,Wunderground v.1.15,2013-04-17 17:32:00,
2013-04-17 13:33:00,54.3,37.0,30.36,ENE,69,2.0,7.0,52,0.00,,,0.00,Wunderground v.1.15,2013-04-17 17:33:00,
2013-04-17 13:34:00,54.4,37.1,30.36,South,179,1.0,7.0,52,0.00,,,0.00,Wunderground v.1.15,2013-04-17 17:34:00,
2013-04-17 13:37:00,54.7,36.9,30.36,South,176,1.0,7.0,51,0.00,,,0.00,Wunderground v.1.15,2013-04-17 17:37:00,
2013-04-17 13:38:00,54.9,37.1,30.36,SW,233,3.0,7.0,51,0.00,,,0.00,Wunderground v.1.15,2013-04-17 17:38:00,
2013-04-17 13:39:00,55.0,37.2,30.36,South,179,4.0,7.0,51,0.00,,,0.00,Wunderground v.1.15,2013-04-17 17:39:00,
2013-04-17 13:40:00,55.1,36.8,30.36,SW,226,1.0,3.0,50,0.00,,,0.00,Wunderground v.1.15,2013-04-17 17:40:00,
2013-04-17 13:42:00,55.7,37.8,30.36,ESE,120,2.0,5.0,51,0.00,,,0.00,Wunderground v.1.15,2013-04-17 17:42:00,
2013-04-17 13:43:00,55.9,37.0,30.36,SE,142,5.0,5.0,49,0.00,,,0.00,Wunderground v.1.15,2013-04-17 17:43:00,
2013-04-17 13:44:00,56.0,37.1,30.37,SE,135,2.0,5.0,49,0.00,,,0.00,Wunderground v.1.15,2013-04-17 17:44:00,
2013-04-17 13:45:00,56.1,37.2,30.36,SE,125,4.0,5.0,49,0.00,,,0.00,Wunderground v.1.15,2013-04-17 17:45:00,
2013-04-17 13:48:00,55.9,35.9,30.37,SSW,208,0.0,5.0,47,0.00,,,0.00,Wunderground v.1.15,2013-04-17 17:48:00,
2013-04-17 13:49:00,55.8,36.4,30.37,SE,139,3.0,5.0,48,0.00,,,0.00,Wunderground v.1.15,2013-04-17 17:49:00,
2013-04-17 13:50:00,55.6,35.7,30.36,WNW,291,2.0,3.0,47,0.00,,,0.00,Wunderground v.1.15,2013-04-17 17:50:00,
2013-04-17 13:53:00,55.6,37.7,30.36,SE,132,1.0,3.0,51,0.00,,,0.00,Wunderground v.1.15,2013-04-17 17:53:00,
2013-04-17 13:54:00,55.7,37.3,30.36,SE,146,4.0,4.0,50,0.00,,,0.00,Wunderground v.1.15,2013-04-17 17:54:00,
2013-04-17 13:55:00,55.9,37.5,30.36,NNW,329,0.0,4.0,50,0.00,,,0.00,Wunderground v.1.15,2013-04-17 17:55:00,
2013-04-17 13:58:00,56.4,36.4,30.35,ENE,67,2.0,4.0,47,0.00,,,0.00,Wunderground v.1.15,2013-04-17 17:58:00,
2013-04-17 13:59:00,56.3,36.3,30.35,ENE,66,2.0,4.0,47,0.00,,,0.00,Wunderground v.1.15,2013-04-17 17:59:00,
2013-04-17 14:00:00,56.1,36.1,30.35,ENE,60,1.0,1.0,47,0.00,,,0.00,Wunderground v.1.15,2013-04-17 18:00:00,
2013-04-17 14:03:00,56.2,36.8,30.34,East,100,2.0,2.0,48,0.00,,,0.00,Wunderground v.1.15,2013-04-17 18:03:00,
2013-04-17 14:04:00,56.2,36.8,30.34,ENE,74,1.0,2.0,48,0.00,,,0.00,Wunderground v.1.15,2013-04-17 18:04:00,
2013-04-17 14:05:00,56.2,37.3,30.34,ESE,105,2.0,5.0,49,0.00,,,0.00,Wunderground v.1.15,2013-04-17 18:05:00,
2013-04-17 14:08:00,55.6,36.7,30.33,ENE,71,3.0,7.0,49,0.00,,,0.00,Wunderground v.1.15,2013-04-17 18:08:00,
2013-04-17 14:09:00,55.6,36.7,30.33,ENE,60,5.0,7.0,49,0.00,,,0.00,Wunderground v.1.15,2013-04-17 18:09:00,
2013-04-17 14:10:00,55.5,37.1,30.33,East,84,4.0,7.0,50,0.00,,,0.00,Wunderground v.1.15,2013-04-17 18:10:00,
2013-04-17 14:13:00,55.3,36.5,30.33,East,101,8.0,9.0,49,0.00,,,0.00,Wunderground v.1.15,2013-04-17 18:13:00,
2013-04-17 14:14:00,55.2,36.4,30.32,East,82,5.0,9.0,49,0.00,,,0.00,Wunderground v.1.15,2013-04-17 18:14:00,
2013-04-17 14:15:00,54.9,36.1,30.32,East,100,3.0,9.0,49,0.00,,,0.00,Wunderground v.1.15,2013-04-17 18:15:00,
2013-04-17 14:16:00,54.8,36.0,30.32,East,79,3.0,9.0,49,0.00,,,0.00,Wunderground v.1.15,2013-04-17 18:16:00,
2013-04-17 14:19:00,54.8,37.0,30.31,ENE,65,4.0,9.0,51,0.00,,,0.00,Wunderground v.1.15,2013-04-17 18:19:00,
2013-04-17 14:21:00,54.8,36.5,30.30,ENE,65,2.0,6.0,50,0.00,,,0.00,Wunderground v.1.15,2013-04-17 18:21:00,
2013-04-17 14:24:00,54.7,36.9,30.30,East,87,2.0,8.0,51,0.00,,,0.00,Wunderground v.1.15,2013-04-17 18:24:00,
2013-04-17 14:25:00,54.7,36.4,30.30,East,86,3.0,8.0,50,0.00,,,0.00,Wunderground v.1.15,2013-04-17 18:25:00,
2013-04-17 14:26:00,54.7,36.9,30.29,East,91,6.0,9.0,51,0.00,,,0.00,Wunderground v.1.15,2013-04-17 18:26:00,
2013-04-17 14:29:00,54.8,37.0,30.29,ENE,63,4.0,9.0,51,0.00,,,0.00,Wunderground v.1.15,2013-04-17 18:29:00,
2013-04-17 14:30:00,54.9,37.1,30.29,ESE,117,5.0,5.0,51,0.00,,,0.00,Wunderground v.1.15,2013-04-17 18:30:00,
2013-04-17 14:31:00,55.0,36.7,30.29,SSW,196,2.0,6.0,50,0.00,,,0.00,Wunderground v.1.15,2013-04-17 18:31:00,
2013-04-17 14:32:00,55.0,37.2,30.29,SE,146,2.0,6.0,51,0.00,,,0.00,Wunderground v.1.15,2013-04-17 18:32:00,
2013-04-17 14:35:00,55.7,38.3,30.30,ENE,68,1.0,6.0,52,0.00,,,0.00,Wunderground v.1.15,2013-04-17 18:35:00,
2013-04-17 14:37:00,55.8,36.4,30.31,ESE,103,2.0,6.0,48,0.00,,,0.00,Wunderground v.1.15,2013-04-17 18:37:00,
2013-04-17 14:40:00,55.8,37.4,30.29,SE,127,0.0,3.0,50,0.00,,,0.00,Wunderground v.1.15,2013-04-17 18:40:00,
2013-04-17 14:41:00,55.9,37.5,30.29,SE,126,0.0,3.0,50,0.00,,,0.00,Wunderground v.1.15,2013-04-17 18:41:00,
2013-04-17 14:42:00,56.3,37.9,30.29,SE,125,1.0,3.0,50,0.00,,,0.00,Wunderground v.1.15,2013-04-17 18:42:00,
2013-04-17 14:43:00,56.5,38.6,30.29,SE,128,1.0,3.0,51,0.00,,,0.00,Wunderground v.1.15,2013-04-17 18:43:00,
2013-04-17 14:45:00,56.9,38.9,30.29,East,81,2.0,4.0,51,0.00,,,0.00,Wunderground v.1.15,2013-04-17 18:45:00,
2013-04-17 14:46:00,56.8,36.8,30.30,ENE,63,2.0,4.0,47,0.00,,,0.00,Wunderground v.1.15,2013-04-17 18:46:00,
2013-04-17 14:47:00,56.6,36.6,30.30,ENE,60,4.0,6.0,47,0.00,,,0.00,Wunderground v.1.15,2013-04-17 18:47:00,
2013-04-17 14:48:00,56.4,36.9,30.30,East,81,2.0,6.0,48,0.00,,,0.00,Wunderground v.1.15,2013-04-17 18:48:00,
2013-04-17 14:50:00,56.3,38.4,30.29,East,85,2.0,2.0,51,0.00,,,0.00,Wunderground v.1.15,2013-04-17 18:50:00,
2013-04-17 14:52:00,56.4,37.5,30.29,East,84,8.0,8.0,49,0.00,,,0.00,Wunderground v.1.15,2013-04-17 18:52:00,
2013-04-17 14:53:00,56.3,37.4,30.29,ENE,62,3.0,8.0,49,0.00,,,0.00,Wunderground v.1.15,2013-04-17 18:53:00,
2013-04-17 14:55:00,56.2,37.3,30.30,East,79,3.0,8.0,49,0.00,,,0.00,Wunderground v.1.15,2013-04-17 18:55:00,
2013-04-17 14:56:00,56.2,37.3,30.30,ESE,103,2.0,8.0,49,0.00,,,0.00,Wunderground v.1.15,2013-04-17 18:56:00,
2013-04-17 14:57:00,56.2,36.8,30.29,East,82,1.0,8.0,48,0.00,,,0.00,Wunderground v.1.15,2013-04-17 18:57:00,
2013-04-17 14:58:00,56.1,36.7,30.29,ESE,105,2.0,8.0,48,0.00,,,0.00,Wunderground v.1.15,2013-04-17 18:58:00,
2013-04-17 15:00:00,56.6,38.7,30.28,ESE,115,2.0,4.0,51,0.00,,,0.00,Wunderground v.1.15,2013-04-17 19:00:00,
2013-04-17 15:01:00,56.9,38.4,30.28,NW,305,1.0,4.0,50,0.00,,,0.00,Wunderground v.1.15,2013-04-17 19:01:00,
2013-04-17 15:02:00,57.1,38.6,30.28,ESE,108,2.0,4.0,50,0.00,,,0.00,Wunderground v.1.15,2013-04-17 19:02:00,
2013-04-17 15:03:00,57.4,38.4,30.28,South,190,2.0,5.0,49,0.00,,,0.00,Wunderground v.1.15,2013-04-17 19:03:00,
2013-04-17 15:06:00,57.5,38.5,30.28,ENE,62,2.0,5.0,49,0.00,,,0.00,Wunderground v.1.15,2013-04-17 19:06:00,
2013-04-17 15:07:00,57.4,37.9,30.28,East,79,3.0,6.0,48,0.00,,,0.00,Wunderground v.1.15,2013-04-17 19:07:00,
2013-04-17 15:08:00,57.3,37.2,30.28,East,80,3.0,8.0,47,0.00,,,0.00,Wunderground v.1.15,2013-04-17 19:08:00,
2013-04-17 15:11:00,56.5,38.1,30.28,South,176,1.0,7.0,50,0.00,,,0.00,Wunderground v.1.15,2013-04-17 19:11:00,
2013-04-17 15:12:00,56.5,38.1,30.28,ESE,121,3.0,7.0,50,0.00,,,0.00,Wunderground v.1.15,2013-04-17 19:12:00,
2013-04-17 15:13:00,56.5,38.1,30.28,East,101,0.0,7.0,50,0.00,,,0.00,Wunderground v.1.15,2013-04-17 19:13:00,
2013-04-17 15:17:00,56.9,37.9,30.27,East,84,3.0,7.0,49,0.00,,,0.00,Wunderground v.1.15,2013-04-17 19:17:00,
2013-04-17 15:18:00,56.8,37.3,30.27,ENE,73,4.0,7.0,48,0.00,,,0.00,Wunderground v.1.15,2013-04-17 19:18:00,
2013-04-17 15:22:00,56.6,37.1,30.27,ENE,73,2.0,6.0,48,0.00,,,0.00,Wunderground v.1.15,2013-04-17 19:22:00,
2013-04-17 15:24:00,56.7,38.3,30.27,SE,129,3.0,6.0,50,0.00,,,0.00,Wunderground v.1.15,2013-04-17 19:24:00,
2013-04-17 15:27:00,57.2,38.7,30.27,SE,131,0.0,6.0,50,0.00,,,0.00,Wunderground v.1.15,2013-04-17 19:27:00,
2013-04-17 15:28:00,57.4,38.4,30.27,East,91,3.0,6.0,49,0.00,,,0.00,Wunderground v.1.15,2013-04-17 19:28:00,
2013-04-17 15:29:00,57.5,37.4,30.27,SW,233,2.0,6.0,47,0.00,,,0.00,Wunderground v.1.15,2013-04-17 19:29:00,
2013-04-17 15:33:00,58.0,37.9,30.27,East,87,4.0,6.0,47,0.00,,,0.00,Wunderground v.1.15,2013-04-17 19:33:00,
2013-04-17 15:34:00,58.0,37.9,30.27,ENE,77,4.0,6.0,47,0.00,,,0.00,Wunderground v.1.15,2013-04-17 19:34:00,
2013-04-17 15:38:00,57.9,38.8,30.26,ESE,108,3.0,6.0,49,0.00,,,0.00,Wunderground v.1.15,2013-04-17 19:38:00,
2013-04-17 15:39:00,57.9,37.8,30.26,East,101,2.0,6.0,47,0.00,,,0.00,Wunderground v.1.15,2013-04-17 19:39:00,
2013-04-17 15:40:00,58.0,37.9,30.26,SSW,208,3.0,3.0,47,0.00,,,0.00,Wunderground v.1.15,2013-04-17 19:40:00,
2013-04-17 15:43:00,58.3,38.1,30.26,South,186,5.0,5.0,47,0.00,,,0.00,Wunderground v.1.15,2013-04-17 19:43:00,
2013-04-17 15:44:00,58.4,37.7,30.26,NE,39,4.0,6.0,46,0.00,,,0.00,Wunderground v.1.15,2013-04-17 19:44:00,
2013-04-17 15:45:00,58.3,37.6,30.26,SSE,150,1.0,6.0,46,0.00,,,0.00,Wunderground v.1.15,2013-04-17 19:45:00,
2013-04-17 15:48:00,58.0,37.3,30.26,East,80,4.0,8.0,46,0.00,,,0.00,Wunderground v.1.15,2013-04-17 19:48:00,
2013-04-17 15:49:00,57.8,37.1,30.26,NE,55,4.0,8.0,46,0.00,,,0.00,Wunderground v.1.15,2013-04-17 19:49:00,
2013-04-17 15:50:00,57.8,37.1,30.26,ENE,72,3.0,3.0,46,0.00,,,0.00,Wunderground v.1.15,2013-04-17 19:50:00,
2013-04-17 15:53:00,57.0,37.5,30.26,East,98,5.0,12.0,48,0.00,,,0.00,Wunderground v.1.15,2013-04-17 19:53:00,
2013-04-17 15:54:00,56.9,36.9,30.26,East,88,4.0,12.0,47,0.00,,,0.00,Wunderground v.1.15,2013-04-17 19:54:00,
2013-04-17 15:55:00,56.7,37.2,30.26,East,94,5.0,12.0,48,0.00,,,0.00,Wunderground v.1.15,2013-04-17 19:55:00,
2013-04-17 15:58:00,56.6,37.6,30.26,NE,49,3.0,12.0,49,0.00,,,0.00,Wunderground v.1.15,2013-04-17 19:58:00,
2013-04-17 15:59:00,56.6,37.6,30.26,ENE,73,4.0,12.0,49,0.00,,,0.00,Wunderground v.1.15,2013-04-17 19:59:00,
2013-04-17 16:01:00,56.6,37.1,30.25,East,98,4.0,5.0,48,0.00,,,0.00,Wunderground v.1.15,2013-04-17 20:01:00,
2013-04-17 16:02:00,56.5,38.1,30.26,NE,50,5.0,5.0,50,0.00,,,0.00,Wunderground v.1.15,2013-04-17 20:02:00,
2013-04-17 16:03:00,56.5,38.1,30.25,SE,136,2.0,5.0,50,0.00,,,0.00,Wunderground v.1.15,2013-04-17 20:03:00,
2013-04-17 16:04:00,56.5,37.6,30.25,SE,145,0.0,5.0,49,0.00,,,0.00,Wunderground v.1.15,2013-04-17 20:04:00,
2013-04-17 16:05:00,56.5,38.1,30.25,NNE,32,1.0,5.0,50,0.00,,,0.00,Wunderground v.1.15,2013-04-17 20:05:00,
2013-04-17 16:06:00,56.6,37.6,30.26,East,80,2.0,5.0,49,0.00,,,0.00,Wunderground v.1.15,2013-04-17 20:06:00,
2013-04-17 16:07:00,56.6,37.6,30.26,East,84,3.0,8.0,49,0.00,,,0.00,Wunderground v.1.15,2013-04-17 20:07:00,
2013-04-17 16:09:00,56.4,38.0,30.26,East,84,1.0,8.0,50,0.00,,,0.00,Wunderground v.1.15,2013-04-17 20:09:00,
2013-04-17 16:10:00,56.3,37.9,30.26,East,84,2.0,4.0,50,0.00,,,0.00,Wunderground v.1.15,2013-04-17 20:10:00,
2013-04-17 16:11:00,56.3,38.4,30.26,East,98,5.0,5.0,51,0.00,,,0.00,Wunderground v.1.15,2013-04-17 20:11:00,
2013-04-17 16:12:00,56.3,37.9,30.26,ENE,72,2.0,6.0,50,0.00,,,0.00,Wunderground v.1.15,2013-04-17 20:12:00,
2013-04-17 16:14:00,56.2,37.8,30.26,East,89,1.0,6.0,50,0.00,,,0.00,Wunderground v.1.15,2013-04-17 20:14:00,
2013-04-17 16:16:00,56.2,37.8,30.26,East,89,5.0,10.0,50,0.00,,,0.00,Wunderground v.1.15,2013-04-17 20:16:00,
2013-04-17 16:18:00,55.9,37.5,30.26,ESE,105,6.0,10.0,50,0.00,,,0.00,Wunderground v.1.15,2013-04-17 20:18:00,
2013-04-17 16:19:00,55.8,37.4,30.26,ENE,77,2.0,10.0,50,0.00,,,0.00,Wunderground v.1.15,2013-04-17 20:19:00,
2013-04-17 16:20:00,55.8,37.4,30.26,ENE,71,3.0,4.0,50,0.00,,,0.00,Wunderground v.1.15,2013-04-17 20:20:00,
2013-04-17 16:21:00,55.8,37.9,30.26,East,86,1.0,4.0,51,0.00,,,0.00,Wunderground v.1.15,2013-04-17 20:21:00,
2013-04-17 16:22:00,55.8,37.9,30.26,East,101,1.0,4.0,51,0.00,,,0.00,Wunderground v.1.15,2013-04-17 20:22:00,
2013-04-17 16:23:00,55.9,38.5,30.26,East,100,1.0,4.0,52,0.00,,,0.00,Wunderground v.1.15,2013-04-17 20:23:00,
2013-04-17 16:24:00,56.0,38.1,30.26,WSW,255,0.0,4.0,51,0.00,,,0.00,Wunderground v.1.15,2013-04-17 20:24:00,
2013-04-17 16:25:00,56.1,38.2,30.26,SSE,150,2.0,4.0,51,0.00,,,0.00,Wunderground v.1.15,2013-04-17 20:25:00,
2013-04-17 16:27:00,56.1,38.2,30.25,ENE,63,2.0,5.0,51,0.00,,,0.00,Wunderground v.1.15,2013-04-17 20:27:00,
2013-04-17 16:28:00,56.1,38.2,30.25,East,82,1.0,5.0,51,0.00,,,0.00,Wunderground v.1.15,2013-04-17 20:28:00,
2013-04-17 16:29:00,56.1,39.2,30.25,East,84,5.0,5.0,53,0.00,,,0.00,Wunderground v.1.15,2013-04-17 20:29:00,
2013-04-17 16:30:00,56.1,39.2,30.25,East,84,2.0,4.0,53,0.00,,,0.00,Wunderground v.1.15,2013-04-17 20:30:00,
2013-04-17 16:32:00,55.9,37.5,30.25,ENE,75,4.0,7.0,50,0.00,,,0.00,Wunderground v.1.15,2013-04-17 20:32:00,
2013-04-17 16:33:00,55.8,37.9,30.24,East,94,6.0,9.0,51,0.00,,,0.00,Wunderground v.1.15,2013-04-17 20:33:00,
2013-04-17 16:34:00,55.5,38.1,30.24,East,91,2.0,9.0,52,0.00,,,0.00,Wunderground v.1.15,2013-04-17 20:34:00,
2013-04-17 16:35:00,55.4,38.1,30.23,ESE,115,5.0,9.0,52,0.00,,,0.00,Wunderground v.1.15,2013-04-17 20:35:00,
2013-04-17 16:37:00,55.3,38.4,30.23,ENE,62,1.0,9.0,53,0.00,,,0.00,Wunderground v.1.15,2013-04-17 20:37:00,
2013-04-17 16:38:00,55.3,38.4,30.23,NE,46,1.0,9.0,53,0.00,,,0.00,Wunderground v.1.15,2013-04-17 20:38:00,
2013-04-17 16:39:00,55.3,38.4,30.23,SE,125,2.0,9.0,53,0.00,,,0.00,Wunderground v.1.15,2013-04-17 20:39:00,
2013-04-17 16:40:00,55.3,38.4,30.23,ESE,103,5.0,5.0,53,0.00,,,0.00,Wunderground v.1.15,2013-04-17 20:40:00,
2013-04-17 16:42:00,55.3,38.0,30.23,ENE,68,1.0,7.0,52,0.00,,,0.00,Wunderground v.1.15,2013-04-17 20:42:00,
2013-04-17 16:43:00,55.2,37.9,30.24,East,84,5.0,7.0,52,0.00,,,0.00,Wunderground v.1.15,2013-04-17 20:43:00,
2013-04-17 16:44:00,55.1,37.3,30.23,ESE,118,3.0,7.0,51,0.00,,,0.00,Wunderground v.1.15,2013-04-17 20:44:00,
2013-04-17 16:45:00,55.0,37.7,30.24,ENE,77,2.0,7.0,52,0.00,,,0.00,Wunderground v.1.15,2013-04-17 20:45:00,
2013-04-17 16:47:00,54.9,37.6,30.24,East,84,3.0,7.0,52,0.00,,,0.00,Wunderground v.1.15,2013-04-17 20:47:00,
2013-04-17 16:49:00,54.7,37.4,30.24,East,86,4.0,7.0,52,0.00,,,0.00,Wunderground v.1.15,2013-04-17 20:49:00,
2013-04-17 16:50:00,54.7,37.4,30.23,East,98,6.0,6.0,52,0.00,,,0.00,Wunderground v.1.15,2013-04-17 20:50:00,
2013-04-17 16:51:00,54.6,36.8,30.23,East,91,7.0,7.0,51,0.00,,,0.00,Wunderground v.1.15,2013-04-17 20:51:00,
2013-04-17 16:53:00,54.4,37.1,30.23,East,95,3.0,7.0,52,0.00,,,0.00,Wunderground v.1.15,2013-04-17 20:53:00,
2013-04-17 16:54:00,54.3,37.5,30.22,East,96,1.0,9.0,53,0.00,,,0.00,Wunderground v.1.15,2013-04-17 20:54:00,
2013-04-17 16:56:00,54.3,38.0,30.22,East,98,1.0,9.0,54,0.00,,,0.00,Wunderground v.1.15,2013-04-17 20:56:00,
2013-04-17 16:57:00,54.3,38.0,30.22,East,91,3.0,9.0,54,0.00,,,0.00,Wunderground v.1.15,2013-04-17 20:57:00,
2013-04-17 16:58:00,54.3,37.5,30.22,East,94,2.0,9.0,53,0.00,,,0.00,Wunderground v.1.15,2013-04-17 20:58:00,
2013-04-17 16:59:00,54.3,37.5,30.22,East,80,5.0,9.0,53,0.00,,,0.00,Wunderground v.1.15,2013-04-17 20:59:00,
2013-04-17 17:00:00,54.3,37.5,30.22,ENE,75,5.0,8.0,53,0.00,,,0.00,Wunderground v.1.15,2013-04-17 21:00:00,
2013-04-17 17:02:00,54.2,37.9,30.22,East,88,3.0,8.0,54,0.00,,,0.00,Wunderground v.1.15,2013-04-17 21:02:00,
2013-04-17 17:03:00,54.1,37.8,30.22,ENE,69,4.0,8.0,54,0.00,,,0.00,Wunderground v.1.15,2013-04-17 21:03:00,
2013-04-17 17:05:00,54.1,38.3,30.23,East,94,1.0,8.0,55,0.00,,,0.00,Wunderground v.1.15,2013-04-17 21:05:00,
2013-04-17 17:07:00,54.0,38.6,30.23,East,92,2.0,8.0,56,0.00,,,0.00,Wunderground v.1.15,2013-04-17 21:07:00,
2013-04-17 17:08:00,54.1,38.3,30.23,East,81,4.0,8.0,55,0.00,,,0.00,Wunderground v.1.15,2013-04-17 21:08:00,
2013-04-17 17:10:00,54.0,38.2,30.23,ENE,57,1.0,4.0,55,0.00,,,0.00,Wunderground v.1.15,2013-04-17 21:10:00,
2013-04-17 17:12:00,54.1,38.7,30.24,ESE,104,1.0,4.0,56,0.00,,,0.00,Wunderground v.1.15,2013-04-17 21:12:00,
2013-04-17 17:14:00,54.1,38.7,30.24,South,184,1.0,4.0,56,0.00,,,0.00,Wunderground v.1.15,2013-04-17 21:14:00,
2013-04-17 17:15:00,54.0,38.6,30.24,South,190,1.0,4.0,56,0.00,,,0.00,Wunderground v.1.15,2013-04-17 21:15:00,
2013-04-17 17:16:00,54.0,38.6,30.24,South,179,3.0,4.0,56,0.00,,,0.00,Wunderground v.1.15,2013-04-17 21:16:00,
2013-04-17 17:17:00,54.0,38.2,30.25,SSW,210,1.0,5.0,55,0.00,,,0.00,Wunderground v.1.15,2013-04-17 21:17:00,
2013-04-17 17:18:00,54.0,38.2,30.25,ESE,121,1.0,5.0,55,0.00,,,0.00,Wunderground v.1.15,2013-04-17 21:18:00,
2013-04-17 17:19:00,53.9,38.6,30.25,WSW,246,1.0,5.0,56,0.00,,,0.00,Wunderground v.1.15,2013-04-17 21:19:00,
2013-04-17 17:21:00,53.9,38.6,30.24,East,87,1.0,4.0,56,0.00,,,0.00,Wunderground v.1.15,2013-04-17 21:21:00,
2013-04-17 17:23:00,53.8,38.5,30.24,ENE,60,2.0,4.0,56,0.00,,,0.00,Wunderground v.1.15,2013-04-17 21:23:00,
2013-04-17 17:25:00,53.6,39.2,30.23,East,98,3.0,5.0,58,0.00,,,0.00,Wunderground v.1.15,2013-04-17 21:25:00,
2013-04-17 17:26:00,53.5,39.5,30.23,East,89,3.0,5.0,59,0.00,,,0.00,Wunderground v.1.15,2013-04-17 21:26:00,
2013-04-17 17:28:00,53.3,40.2,30.21,East,97,2.0,5.0,61,0.00,,,0.00,Wunderground v.1.15,2013-04-17 21:28:00,
2013-04-17 17:29:00,53.1,40.8,30.21,ENE,69,3.0,5.0,63,0.00,,,0.01,Wunderground v.1.15,2013-04-17 21:29:00,
2013-04-17 17:30:00,52.8,41.4,30.19,East,98,4.0,5.0,65,0.00,,,0.01,Wunderground v.1.15,2013-04-17 21:30:00,
2013-04-17 17:31:00,52.3,41.3,30.20,East,83,1.0,5.0,66,0.19,,,0.01,Wunderground v.1.15,2013-04-17 21:31:00,
2013-04-17 17:33:00,51.8,41.6,30.20,North,4,3.0,5.0,68,0.19,,,0.02,Wunderground v.1.15,2013-04-17 21:33:00,
2013-04-17 17:34:00,51.8,41.6,30.20,NE,46,2.0,5.0,68,0.19,,,0.02,Wunderground v.1.15,2013-04-17 21:34:00,
2013-04-17 17:35:00,51.4,41.9,30.19,ENE,63,2.0,5.0,70,0.24,,,0.03,Wunderground v.1.15,2013-04-17 21:35:00,
2013-04-17 17:36:00,51.0,41.9,30.19,ENE,71,5.0,10.0,71,0.24,,,0.03,Wunderground v.1.15,2013-04-17 21:36:00,
2013-04-17 17:38:00,50.6,42.3,30.19,ENE,75,3.0,10.0,73,0.14,,,0.03,Wunderground v.1.15,2013-04-17 21:38:00,
2013-04-17 17:39:00,50.6,42.3,30.19,ENE,63,2.0,10.0,73,0.12,,,0.03,Wunderground v.1.15,2013-04-17 21:39:00,
2013-04-17 17:40:00,50.3,42.0,30.19,ENE,62,2.0,3.0,73,0.12,,,0.04,Wunderground v.1.15,2013-04-17 21:40:00,
2013-04-17 17:41:00,50.1,42.1,30.19,ENE,78,4.0,7.0,74,0.12,,,0.04,Wunderground v.1.15,2013-04-17 21:41:00,
2013-04-17 17:42:00,50.0,42.0,30.19,ENE,74,4.0,7.0,74,0.12,,,0.04,Wunderground v.1.15,2013-04-17 21:42:00,
2013-04-17 17:44:00,49.9,42.3,30.19,ESE,105,1.0,8.0,75,0.12,,,0.04,Wunderground v.1.15,2013-04-17 21:44:00,
2013-04-17 17:45:00,49.7,42.4,30.20,SW,215,1.0,8.0,76,0.10,,,0.04,Wunderground v.1.15,2013-04-17 21:45:00,
2013-04-17 17:47:00,49.6,42.7,30.22,SSE,165,1.0,8.0,77,0.08,,,0.04,Wunderground v.1.15,2013-04-17 21:47:00,
2013-04-17 17:49:00,49.5,42.6,30.22,SE,143,0.0,8.0,77,0.06,,,0.04,Wunderground v.1.15,2013-04-17 21:49:00,
2013-04-17 17:50:00,49.5,42.9,30.21,SSE,167,0.0,2.0,78,0.05,,,0.04,Wunderground v.1.15,2013-04-17 21:50:00,
2013-04-17 17:52:00,49.4,43.2,30.21,SE,145,1.0,2.0,79,0.05,,,0.04,Wunderground v.1.15,2013-04-17 21:52:00,
2013-04-17 17:54:00,49.4,43.2,30.21,SSE,153,2.0,2.0,79,0.04,,,0.04,Wunderground v.1.15,2013-04-17 21:54:00,
2013-04-17 17:55:00,49.4,43.2,30.21,ESE,108,1.0,2.0,79,0.04,,,0.04,Wunderground v.1.15,2013-04-17 21:55:00,
2013-04-17 17:57:00,49.5,43.3,30.21,ENE,76,2.0,2.0,79,0.00,,,0.04,Wunderground v.1.15,2013-04-17 21:57:00,
2013-04-17 17:58:00,49.5,43.3,30.21,East,97,3.0,3.0,79,0.00,,,0.04,Wunderground v.1.15,2013-04-17 21:58:00,
2013-04-17 17:59:00,49.5,42.9,30.20,ESE,102,3.0,3.0,78,0.00,,,0.04,Wunderground v.1.15,2013-04-17 21:59:00,
2013-04-17 18:01:00,49.6,43.0,30.21,East,90,0.0,1.0,78,0.00,,,0.04,Wunderground v.1.15,2013-04-17 22:01:00,
2013-04-17 18:03:00,49.6,43.0,30.20,West,270,2.0,3.0,78,0.00,,,0.04,Wunderground v.1.15,2013-04-17 22:03:00,
2013-04-17 18:04:00,49.7,43.1,30.21,East,96,3.0,4.0,78,0.00,,,0.04,Wunderground v.1.15,2013-04-17 22:04:00,
2013-04-17 18:06:00,49.8,43.2,30.20,ESE,102,3.0,5.0,78,0.00,,,0.04,Wunderground v.1.15,2013-04-17 22:06:00,
2013-04-17 18:08:00,49.9,43.0,30.20,ENE,65,3.0,5.0,77,0.00,,,0.04,Wunderground v.1.15,2013-04-17 22:08:00,
2013-04-17 18:09:00,49.9,43.3,30.20,ENE,77,3.0,5.0,78,0.00,,,0.04,Wunderground v.1.15,2013-04-17 22:09:00,
2013-04-17 18:11:00,50.0,43.1,30.20,ESE,103,3.0,5.0,77,0.00,,,0.04,Wunderground v.1.15,2013-04-17 22:11:00,
2013-04-17 18:13:00,50.0,43.1,30.20,ENE,65,3.0,5.0,77,0.00,,,0.04,Wunderground v.1.15,2013-04-17 22:13:00,
2013-04-17 18:14:00,50.0,43.1,30.19,ENE,66,2.0,5.0,77,0.00,,,0.04,Wunderground v.1.15,2013-04-17 22:14:00,
2013-04-17 18:16:00,50.0,43.4,30.18,ENE,71,2.0,5.0,78,0.00,,,0.04,Wunderground v.1.15,2013-04-17 22:16:00,
2013-04-17 18:18:00,50.0,43.1,30.19,ENE,66,5.0,10.0,77,0.00,,,0.04,Wunderground v.1.15,2013-04-17 22:18:00,
2013-04-17 18:19:00,50.0,43.1,30.19,East,98,1.0,10.0,77,0.00,,,0.04,Wunderground v.1.15,2013-04-17 22:19:00,
2013-04-17 18:20:00,50.0,43.1,30.20,ENE,63,2.0,3.0,77,0.00,,,0.04,Wunderground v.1.15,2013-04-17 22:20:00,
2013-04-17 18:22:00,49.9,43.0,30.20,East,93,1.0,3.0,77,0.00,,,0.04,Wunderground v.1.15,2013-04-17 22:22:00,
2013-04-17 18:23:00,50.0,43.4,30.20,ENE,68,1.0,3.0,78,0.00,,,0.04,Wunderground v.1.15,2013-04-17 22:23:00,
2013-04-17 18:24:00,50.0,43.4,30.20,ENE,74,3.0,4.0,78,0.00,,,0.04,Wunderground v.1.15,2013-04-17 22:24:00,
2013-04-17 18:25:00,50.0,43.4,30.20,ENE,65,5.0,5.0,78,0.00,,,0.04,Wunderground v.1.15,2013-04-17 22:25:00,
2013-04-17 18:27:00,49.9,43.0,30.19,East,97,3.0,6.0,77,0.00,,,0.04,Wunderground v.1.15,2013-04-17 22:27:00,
2013-04-17 18:29:00,50.0,43.1,30.19,ENE,64,2.0,6.0,77,0.00,,,0.04,Wunderground v.1.15,2013-04-17 22:29:00,
2013-04-17 18:30:00,50.0,43.4,30.19,East,81,2.0,3.0,78,0.00,,,0.04,Wunderground v.1.15,2013-04-17 22:30:00,
2013-04-17 18:32:00,50.0,43.1,30.19,East,97,4.0,7.0,77,0.00,,,0.04,Wunderground v.1.15,2013-04-17 22:32:00,
2013-04-17 18:34:00,50.0,43.4,30.19,ENE,76,4.0,11.0,78,0.00,,,0.04,Wunderground v.1.15,2013-04-17 22:34:00,
2013-04-17 18:35:00,50.0,43.1,30.19,East,91,4.0,11.0,77,0.00,,,0.04,Wunderground v.1.15,2013-04-17 22:35:00,
2013-04-17 18:36:00,50.0,43.4,30.19,ESE,102,4.0,11.0,78,0.00,,,0.04,Wunderground v.1.15,2013-04-17 22:36:00,
2013-04-17 18:37:00,50.0,43.4,30.19,ENE,65,2.0,11.0,78,0.00,,,0.04,Wunderground v.1.15,2013-04-17 22:37:00,
2013-04-17 18:39:00,50.0,43.4,30.18,East,88,3.0,11.0,78,0.00,,,0.04,Wunderground v.1.15,2013-04-17 22:39:00,
2013-04-17 18:40:00,50.0,43.4,30.18,East,83,2.0,4.0,78,0.00,,,0.04,Wunderground v.1.15,2013-04-17 22:40:00,
2013-04-17 18:41:00,50.0,43.4,30.18,East,89,5.0,6.0,78,0.00,,,0.04,Wunderground v.1.15,2013-04-17 22:41:00,
2013-04-17 18:42:00,50.0,43.4,30.17,East,83,2.0,7.0,78,0.00,,,0.04,Wunderground v.1.15,2013-04-17 22:42:00,
2013-04-17 18:44:00,49.9,43.3,30.17,ESE,106,3.0,7.0,78,0.00,,,0.04,Wunderground v.1.15,2013-04-17 22:44:00,
2013-04-17 18:45:00,50.0,43.4,30.17,East,89,2.0,7.0,78,0.00,,,0.04,Wunderground v.1.15,2013-04-17 22:45:00,
2013-04-17 18:46:00,49.9,43.3,30.17,ESE,122,2.0,7.0,78,0.00,,,0.04,Wunderground v.1.15,2013-04-17 22:46:00,
2013-04-17 18:47:00,49.9,43.3,30.18,East,95,4.0,7.0,78,0.00,,,0.04,Wunderground v.1.15,2013-04-17 22:47:00,
2013-04-17 18:49:00,49.8,42.9,30.19,East,97,4.0,7.0,77,0.00,,,0.04,Wunderground v.1.15,2013-04-17 22:49:00,
2013-04-17 18:50:00,49.7,42.8,30.19,East,93,1.0,3.0,77,0.00,,,0.04,Wunderground v.1.15,2013-04-17 22:50:00,
2013-04-17 18:51:00,49.7,42.8,30.19,NE,53,1.0,3.0,77,0.00,,,0.04,Wunderground v.1.15,2013-04-17 22:51:00,
2013-04-17 18:52:00,49.7,42.8,30.19,NE,53,4.0,4.0,77,0.00,,,0.04,Wunderground v.1.15,2013-04-17 22:52:00,
2013-04-17 18:55:00,49.6,42.3,30.19,East,86,2.0,4.0,76,0.00,,,0.04,Wunderground v.1.15,2013-04-17 22:55:00,
2013-04-17 18:56:00,49.6,42.3,30.19,East,84,1.0,4.0,76,0.00,,,0.04,Wunderground v.1.15,2013-04-17 22:56:00,
2013-04-17 18:57:00,49.6,42.3,30.18,East,89,2.0,4.0,76,0.00,,,0.04,Wunderground v.1.15,2013-04-17 22:57:00,
2013-04-17 19:00:00,49.5,42.2,30.18,ENE,66,2.0,4.0,76,0.00,,,0.04,Wunderground v.1.15,2013-04-17 23:00:00,
2013-04-17 19:01:00,49.5,42.2,30.18,East,84,5.0,5.0,76,0.00,,,0.04,Wunderground v.1.15,2013-04-17 23:01:00,
2013-04-17 19:02:00,49.4,42.1,30.18,ENE,68,9.0,9.0,76,0.00,,,0.04,Wunderground v.1.15,2013-04-17 23:02:00,
2013-04-17 19:05:00,49.1,40.8,30.18,East,84,4.0,10.0,73,0.00,,,0.04,Wunderground v.1.15,2013-04-17 23:05:00,
2013-04-17 19:07:00,49.0,40.7,30.17,East,86,5.0,11.0,73,0.00,,,0.04,Wunderground v.1.15,2013-04-17 23:07:00,
2013-04-17 19:08:00,48.9,41.0,30.17,East,79,4.0,11.0,74,0.00,,,0.04,Wunderground v.1.15,2013-04-17 23:08:00,
2013-04-17 19:10:00,48.8,40.9,30.18,ENE,72,2.0,5.0,74,0.00,,,0.04,Wunderground v.1.15,2013-04-17 23:10:00,
2013-04-17 19:12:00,48.7,41.1,30.17,ENE,69,2.0,5.0,75,0.00,,,0.04,Wunderground v.1.15,2013-04-17 23:12:00,
2013-04-17 19:13:00,48.7,41.1,30.17,East,101,2.0,5.0,75,0.00,,,0.04,Wunderground v.1.15,2013-04-17 23:13:00,
2013-04-17 19:16:00,48.6,41.4,30.17,East,89,2.0,5.0,76,0.00,,,0.04,Wunderground v.1.15,2013-04-17 23:16:00,
2013-04-17 19:17:00,48.5,41.3,30.17,East,89,2.0,5.0,76,0.00,,,0.04,Wunderground v.1.15,2013-04-17 23:17:00,
2013-04-17 19:18:00,48.5,41.3,30.17,East,86,1.0,5.0,76,0.00,,,0.04,Wunderground v.1.15,2013-04-17 23:18:00,
2013-04-17 19:21:00,48.4,41.2,30.16,East,89,2.0,3.0,76,0.00,,,0.04,Wunderground v.1.15,2013-04-17 23:21:00,
2013-04-17 19:22:00,48.4,41.2,30.16,ENE,74,3.0,5.0,76,0.00,,,0.04,Wunderground v.1.15,2013-04-17 23:22:00,
2013-04-17 19:23:00,48.3,41.1,30.16,ENE,57,4.0,5.0,76,0.00,,,0.04,Wunderground v.1.15,2013-04-17 23:23:00,
2013-04-17 19:24:00,48.3,40.7,30.16,East,85,3.0,5.0,75,0.00,,,0.04,Wunderground v.1.15,2013-04-17 23:24:00,
2013-04-17 19:26:00,48.2,40.6,30.17,ENE,75,7.0,9.0,75,0.00,,,0.04,Wunderground v.1.15,2013-04-17 23:26:00,
2013-04-17 19:28:00,48.2,40.6,30.17,ESE,105,1.0,9.0,75,0.00,,,0.04,Wunderground v.1.15,2013-04-17 23:28:00,
2013-04-17 19:29:00,48.2,40.6,30.17,East,98,2.0,9.0,75,0.00,,,0.04,Wunderground v.1.15,2013-04-17 23:29:00,
2013-04-17 19:32:00,48.1,40.5,30.17,ENE,74,2.0,4.0,75,0.00,,,0.04,Wunderground v.1.15,2013-04-17 23:32:00,
2013-04-17 19:33:00,48.1,40.5,30.17,ENE,70,2.0,4.0,75,0.00,,,0.04,Wunderground v.1.15,2013-04-17 23:33:00,
2013-04-17 19:34:00,48.1,40.5,30.17,ENE,60,1.0,4.0,75,0.00,,,0.04,Wunderground v.1.15,2013-04-17 23:34:00,
2013-04-17 19:37:00,48.1,40.9,30.16,ENE,63,4.0,5.0,76,0.00,,,0.04,Wunderground v.1.15,2013-04-17 23:37:00,
2013-04-17 19:38:00,48.0,40.5,30.16,ENE,60,2.0,5.0,75,0.00,,,0.04,Wunderground v.1.15,2013-04-17 23:38:00,
2013-04-17 19:39:00,48.0,40.5,30.16,NE,41,2.0,6.0,75,0.00,,,0.04,Wunderground v.1.15,2013-04-17 23:39:00,
2013-04-17 19:42:00,48.0,40.8,30.18,SE,124,0.0,3.0,76,0.00,,,0.05,Wunderground v.1.15,2013-04-17 23:42:00,
2013-04-17 19:43:00,47.9,41.0,30.19,NE,49,1.0,3.0,77,0.00,,,0.05,Wunderground v.1.15,2013-04-17 23:43:00,
2013-04-17 19:44:00,47.9,41.0,30.19,NE,46,1.0,3.0,77,0.35,,,0.06,Wunderground v.1.15,2013-04-17 23:44:00,
2013-04-17 19:45:00,47.8,41.3,30.19,East,94,1.0,3.0,78,0.35,,,0.06,Wunderground v.1.15,2013-04-17 23:45:00,
2013-04-17 19:48:00,47.5,41.6,30.22,WSW,255,0.0,3.0,80,0.48,,,0.13,Wunderground v.1.15,2013-04-17 23:48:00,
2013-04-17 19:49:00,47.3,41.8,30.21,NE,44,1.0,3.0,81,0.35,,,0.14,Wunderground v.1.15,2013-04-17 23:49:00,
2013-04-17 19:50:00,47.1,41.6,30.21,NE,49,2.0,2.0,81,0.35,,,0.14,Wunderground v.1.15,2013-04-17 23:50:00,
2013-04-17 19:53:00,46.6,42.0,30.24,NW,308,1.0,3.0,84,0.13,,,0.14,Wunderground v.1.15,2013-04-17 23:53:00,
2013-04-17 19:54:00,46.5,41.9,30.25,NW,322,3.0,4.0,84,0.11,,,0.14,Wunderground v.1.15,2013-04-17 23:54:00,
2013-04-17 19:55:00,46.3,42.0,30.26,NW,308,2.0,7.0,85,0.10,,,0.15,Wunderground v.1.15,2013-04-17 23:55:00,
2013-04-17 19:58:00,46.0,42.3,30.27,SSW,203,3.0,7.0,87,0.10,,,0.15,Wunderground v.1.15,2013-04-17 23:58:00,
2013-04-17 19:59:00,45.9,42.2,30.26,NNE,22,3.0,7.0,87,0.10,,,0.15,Wunderground v.1.15,2013-04-17 23:59:00,
2013-04-17 20:00:00,45.8,42.2,30.25,West,264,0.0,4.0,87,0.10,,,0.15,Wunderground v.1.15,2013-04-18 00:00:00,
2013-04-17 20:04:00,45.6,42.3,30.23,ENE,62,2.0,4.0,88,0.30,,,0.17,Wunderground v.1.15,2013-04-18 00:04:00,
2013-04-17 20:05:00,45.6,42.3,30.23,ENE,63,0.0,4.0,88,0.21,,,0.17,Wunderground v.1.15,2013-04-18 00:05:00,
2013-04-17 20:10:00,45.4,42.3,30.25,NW,308,0.0,1.0,89,0.08,,,0.17,Wunderground v.1.15,2013-04-18 00:10:00,
2013-04-17 20:11:00,45.4,42.3,30.24,NW,316,0.0,1.0,89,0.08,,,0.18,Wunderground v.1.15,2013-04-18 00:11:00,
2013-04-17 20:15:00,45.3,42.5,30.22,East,91,3.0,4.0,90,0.08,,,0.18,Wunderground v.1.15,2013-04-18 00:15:00,
2013-04-17 20:16:00,45.3,42.5,30.22,ESE,103,2.0,4.0,90,0.08,,,0.18,Wunderground v.1.15,2013-04-18 00:16:00,
2013-04-17 20:20:00,45.2,42.7,30.19,ESE,103,6.0,7.0,91,0.06,,,0.18,Wunderground v.1.15,2013-04-18 00:20:00,
2013-04-17 20:21:00,45.2,42.7,30.19,East,86,3.0,7.0,91,0.06,,,0.18,Wunderground v.1.15,2013-04-18 00:21:00,
2013-04-17 20:25:00,45.1,42.6,30.17,East,83,4.0,9.0,91,0.04,,,0.18,Wunderground v.1.15,2013-04-18 00:25:00,
2013-04-17 20:26:00,45.1,42.6,30.17,East,79,4.0,9.0,91,0.04,,,0.18,Wunderground v.1.15,2013-04-18 00:26:00,
2013-04-17 20:27:00,45.0,42.5,30.17,ENE,76,4.0,9.0,91,0.04,,,0.18,Wunderground v.1.15,2013-04-18 00:27:00,
2013-04-17 20:30:00,44.8,42.3,30.19,ENE,63,1.0,5.0,91,0.00,,,0.19,Wunderground v.1.15,2013-04-18 00:30:00,
2013-04-17 20:31:00,44.8,42.3,30.19,ENE,63,1.0,5.0,91,0.00,,,0.19,Wunderground v.1.15,2013-04-18 00:31:00,
2013-04-17 20:32:00,44.7,42.2,30.19,North,8,1.0,6.0,91,0.00,,,0.19,Wunderground v.1.15,2013-04-18 00:32:00,
2013-04-17 20:36:00,44.5,42.0,30.19,ENE,67,2.0,7.0,91,0.00,,,0.19,Wunderground v.1.15,2013-04-18 00:36:00,
2013-04-17 20:37:00,44.5,42.0,30.18,ENE,60,3.0,7.0,91,0.00,,,0.19,Wunderground v.1.15,2013-04-18 00:37:00,
2013-04-17 20:41:00,44.2,41.7,30.19,ENE,77,1.0,2.0,91,0.00,,,0.19,Wunderground v.1.15,2013-04-18 00:41:00,
2013-04-17 20:42:00,44.2,41.7,30.19,ENE,63,0.0,2.0,91,0.00,,,0.19,Wunderground v.1.15,2013-04-18 00:42:00,
2013-04-17 20:46:00,44.1,41.9,30.20,NNW,331,0.0,4.0,92,0.00,,,0.19,Wunderground v.1.15,2013-04-18 00:46:00,
2013-04-17 20:47:00,44.1,41.9,30.20,North,356,5.0,5.0,92,0.00,,,0.19,Wunderground v.1.15,2013-04-18 00:47:00,
2013-04-17 20:48:00,44.0,41.8,30.20,NE,34,3.0,5.0,92,0.00,,,0.19,Wunderground v.1.15,2013-04-18 00:48:00,
2013-04-17 20:51:00,44.0,41.8,30.22,NNW,340,1.0,5.0,92,0.00,,,0.19,Wunderground v.1.15,2013-04-18 00:51:00,
2013-04-17 20:52:00,44.0,41.8,30.22,West,271,1.0,5.0,92,0.00,,,0.19,Wunderground v.1.15,2013-04-18 00:52:00,
2013-04-17 20:53:00,43.9,41.7,30.22,NNW,344,0.0,5.0,92,0.00,,,0.19,Wunderground v.1.15,2013-04-18 00:53:00,
2013-04-17 20:56:00,43.9,41.7,30.22,ENE,75,0.0,5.0,92,0.00,,,0.19,Wunderground v.1.15,2013-04-18 00:56:00,
2013-04-17 20:57:00,43.9,41.7,30.22,ENE,75,0.0,5.0,92,0.00,,,0.19,Wunderground v.1.15,2013-04-18 00:57:00,
2013-04-17 20:58:00,43.8,41.6,30.22,NNW,332,2.0,5.0,92,0.00,,,0.19,Wunderground v.1.15,2013-04-18 00:58:00,
2013-04-17 21:01:00,43.6,41.4,30.21,East,96,6.0,7.0,92,0.37,,,0.21,Wunderground v.1.15,2013-04-18 01:01:00,
2013-04-17 21:02:00,43.6,41.4,30.20,ENE,75,3.0,8.0,92,0.34,,,0.22,Wunderground v.1.15,2013-04-18 01:02:00,
2013-04-17 21:03:00,43.6,41.4,30.20,East,81,4.0,8.0,92,0.34,,,0.22,Wunderground v.1.15,2013-04-18 01:03:00,
2013-04-17 21:07:00,43.4,41.2,30.19,ENE,63,5.0,9.0,92,0.13,,,0.23,Wunderground v.1.15,2013-04-18 01:07:00,
2013-04-17 21:08:00,43.3,41.1,30.19,ENE,77,2.0,9.0,92,0.13,,,0.23,Wunderground v.1.15,2013-04-18 01:08:00,
2013-04-17 21:12:00,43.2,41.0,30.17,East,79,5.0,6.0,92,0.10,,,0.23,Wunderground v.1.15,2013-04-18 01:12:00,
2013-04-17 21:13:00,43.1,40.9,30.17,East,86,5.0,6.0,92,0.09,,,0.23,Wunderground v.1.15,2013-04-18 01:13:00,
2013-04-17 21:18:00,42.9,40.7,30.16,East,87,3.0,13.0,92,0.07,,,0.24,Wunderground v.1.15,2013-04-18 01:18:00,
2013-04-17 21:23:00,42.7,40.8,30.16,SSE,158,0.0,6.0,93,0.63,,,0.31,Wunderground v.1.15,2013-04-18 01:23:00,
2013-04-17 21:24:00,42.7,40.8,30.17,SSE,158,0.0,6.0,93,0.40,,,0.31,Wunderground v.1.15,2013-04-18 01:24:00,
2013-04-17 21:28:00,42.6,40.7,30.18,NW,309,1.0,6.0,93,0.38,,,0.33,Wunderground v.1.15,2013-04-18 01:28:00,
2013-04-17 21:29:00,42.6,40.7,30.19,NW,311,0.0,6.0,93,0.24,,,0.33,Wunderground v.1.15,2013-04-18 01:29:00,
2013-04-17 21:33:00,42.5,40.6,30.20,SSE,150,0.0,2.0,93,0.09,,,0.33,Wunderground v.1.15,2013-04-18 01:33:00,
2013-04-17 21:34:00,42.5,40.6,30.21,SSE,150,1.0,2.0,93,0.08,,,0.33,Wunderground v.1.15,2013-04-18 01:34:00,
2013-04-17 21:35:00,42.5,40.6,30.20,East,90,1.0,2.0,93,0.07,,,0.33,Wunderground v.1.15,2013-04-18 01:35:00,
2013-04-17 21:38:00,42.5,40.6,30.20,ENE,69,0.0,2.0,93,0.06,,,0.34,Wunderground v.1.15,2013-04-18 01:38:00,
2013-04-17 21:39:00,42.5,40.6,30.20,East,91,1.0,2.0,93,0.06,,,0.34,Wunderground v.1.15,2013-04-18 01:39:00,
2013-04-17 21:40:00,42.5,40.6,30.20,East,91,1.0,1.0,93,0.24,,,0.35,Wunderground v.1.15,2013-04-18 01:40:00,
2013-04-17 21:43:00,42.5,40.6,30.18,East,90,0.0,1.0,93,0.23,,,0.36,Wunderground v.1.15,2013-04-18 01:43:00,
2013-04-17 21:44:00,42.5,40.6,30.19,SE,141,0.0,1.0,93,0.23,,,0.36,Wunderground v.1.15,2013-04-18 01:44:00,
2013-04-17 21:46:00,42.5,40.9,30.19,East,101,2.0,2.0,94,0.15,,,0.36,Wunderground v.1.15,2013-04-18 01:46:00,
2013-04-17 21:48:00,42.5,40.6,30.18,East,95,3.0,4.0,93,0.15,,,0.37,Wunderground v.1.15,2013-04-18 01:48:00,
2013-04-17 21:49:00,42.4,40.5,30.17,East,86,5.0,5.0,93,0.15,,,0.37,Wunderground v.1.15,2013-04-18 01:49:00,
2013-04-17 21:51:00,42.4,40.8,30.16,ENE,63,3.0,5.0,94,0.14,,,0.38,Wunderground v.1.15,2013-04-18 01:51:00,
2013-04-17 21:53:00,42.4,40.8,30.15,East,79,2.0,8.0,94,0.14,,,0.38,Wunderground v.1.15,2013-04-18 01:53:00,
2013-04-17 21:54:00,42.4,40.8,30.15,East,97,4.0,8.0,94,0.14,,,0.38,Wunderground v.1.15,2013-04-18 01:54:00,
2013-04-17 21:55:00,42.4,40.8,30.16,East,94,2.0,8.0,94,0.18,,,0.39,Wunderground v.1.15,2013-04-18 01:55:00,
2013-04-17 21:57:00,42.4,40.8,30.16,East,95,6.0,8.0,94,0.25,,,0.40,Wunderground v.1.15,2013-04-18 01:57:00,
2013-04-17 21:59:00,42.4,40.8,30.16,East,90,3.0,8.0,94,0.25,,,0.40,Wunderground v.1.15,2013-04-18 01:59:00,
2013-04-17 22:02:00,42.5,40.9,30.16,ESE,105,4.0,5.0,94,0.16,,,0.41,Wunderground v.1.15,2013-04-18 02:02:00,
2013-04-17 22:04:00,42.5,40.9,30.17,SSE,162,2.0,5.0,94,0.20,,,0.42,Wunderground v.1.15,2013-04-18 02:04:00,
2013-04-17 22:07:00,42.5,40.9,30.17,East,85,1.0,5.0,94,0.23,,,0.43,Wunderground v.1.15,2013-04-18 02:07:00,
2013-04-17 22:08:00,42.5,40.9,30.17,ESE,108,2.0,5.0,94,0.23,,,0.43,Wunderground v.1.15,2013-04-18 02:08:00,
2013-04-17 22:09:00,42.5,40.9,30.17,ENE,72,2.0,5.0,94,0.23,,,0.44,Wunderground v.1.15,2013-04-18 02:09:00,
2013-04-17 22:12:00,42.4,40.5,30.15,East,101,2.0,8.0,93,0.62,,,0.48,Wunderground v.1.15,2013-04-18 02:12:00,
2013-04-17 22:13:00,42.3,40.7,30.15,East,84,4.0,8.0,94,0.30,,,0.48,Wunderground v.1.15,2013-04-18 02:13:00,
2013-04-17 22:14:00,42.3,40.4,30.15,East,82,4.0,9.0,93,0.26,,,0.49,Wunderground v.1.15,2013-04-18 02:14:00,
2013-04-17 22:15:00,42.3,40.4,30.15,East,82,6.0,9.0,93,0.26,,,0.49,Wunderground v.1.15,2013-04-18 02:15:00,
2013-04-17 22:17:00,42.2,40.6,30.15,East,90,4.0,9.0,94,0.30,,,0.50,Wunderground v.1.15,2013-04-18 02:17:00,
2013-04-17 22:19:00,42.2,40.6,30.15,ENE,76,2.0,9.0,94,0.18,,,0.50,Wunderground v.1.15,2013-04-18 02:19:00,
2013-04-17 22:20:00,42.2,40.6,30.15,SE,124,3.0,5.0,94,0.13,,,0.50,Wunderground v.1.15,2013-04-18 02:20:00,
2013-04-17 22:23:00,42.2,40.6,30.15,East,86,4.0,5.0,94,0.13,,,0.51,Wunderground v.1.15,2013-04-18 02:23:00,
2013-04-17 22:24:00,42.2,40.6,30.15,ENE,67,2.0,5.0,94,0.13,,,0.51,Wunderground v.1.15,2013-04-18 02:24:00,
2013-04-17 22:25:00,42.2,40.6,30.16,East,95,2.0,5.0,94,0.12,,,0.51,Wunderground v.1.15,2013-04-18 02:25:00,
2013-04-17 22:26:00,42.2,40.6,30.16,ESE,114,1.0,5.0,94,0.10,,,0.51,Wunderground v.1.15,2013-04-18 02:26:00,
2013-04-17 22:28:00,42.2,40.6,30.16,ESE,103,1.0,5.0,94,0.10,,,0.52,Wunderground v.1.15,2013-04-18 02:28:00,
2013-04-17 22:29:00,42.2,40.6,30.16,SW,236,1.0,5.0,94,0.10,,,0.52,Wunderground v.1.15,2013-04-18 02:29:00,
2013-04-17 22:30:00,42.2,40.6,30.16,SE,143,0.0,2.0,94,0.10,,,0.52,Wunderground v.1.15,2013-04-18 02:30:00,
2013-04-17 22:32:00,42.3,40.7,30.16,NE,49,2.0,4.0,94,0.15,,,0.53,Wunderground v.1.15,2013-04-18 02:32:00,
2013-04-17 22:33:00,42.2,40.6,30.16,SE,146,2.0,4.0,94,0.15,,,0.53,Wunderground v.1.15,2013-04-18 02:33:00,
2013-04-17 22:34:00,42.3,40.7,30.15,NE,49,3.0,6.0,94,0.15,,,0.53,Wunderground v.1.15,2013-04-18 02:34:00,
2013-04-17 22:35:00,42.3,40.7,30.14,ENE,60,3.0,6.0,94,0.13,,,0.53,Wunderground v.1.15,2013-04-18 02:35:00,
2013-04-17 22:37:00,42.2,40.6,30.13,ESE,108,2.0,6.0,94,0.13,,,0.54,Wunderground v.1.15,2013-04-18 02:37:00,
2013-04-17 22:38:00,42.2,40.6,30.13,ESE,106,3.0,6.0,94,0.13,,,0.54,Wunderground v.1.15,2013-04-18 02:38:00,
2013-04-17 22:40:00,42.2,40.6,30.14,ESE,104,2.0,3.0,94,0.13,,,0.54,Wunderground v.1.15,2013-04-18 02:40:00,
2013-04-17 22:42:00,42.2,40.6,30.13,SE,130,2.0,9.0,94,0.09,,,0.54,Wunderground v.1.15,2013-04-18 02:42:00,
2013-04-17 22:43:00,42.1,40.5,30.13,East,93,4.0,9.0,94,0.08,,,0.54,Wunderground v.1.15,2013-04-18 02:43:00,
2013-04-17 22:45:00,42.1,40.5,30.12,ESE,114,1.0,9.0,94,0.06,,,0.54,Wunderground v.1.15,2013-04-18 02:45:00,
2013-04-17 22:47:00,42.1,40.5,30.12,ESE,104,3.0,9.0,94,0.05,,,0.54,Wunderground v.1.15,2013-04-18 02:47:00,
2013-04-17 22:48:00,42.1,40.5,30.12,ESE,105,1.0,9.0,94,0.05,,,0.54,Wunderground v.1.15,2013-04-18 02:48:00,
2013-04-17 22:50:00,42.2,40.6,30.12,ESE,109,2.0,6.0,94,0.04,,,0.54,Wunderground v.1.15,2013-04-18 02:50:00,
2013-04-17 22:52:00,42.2,40.6,30.12,NE,44,1.0,8.0,94,0.04,,,0.54,Wunderground v.1.15,2013-04-18 02:52:00,
2013-04-17 22:53:00,42.2,40.6,30.12,East,89,0.0,8.0,94,0.00,,,0.55,Wunderground v.1.15,2013-04-18 02:53:00,
2013-04-17 22:55:00,42.2,40.6,30.12,East,94,1.0,12.0,94,0.00,,,0.55,Wunderground v.1.15,2013-04-18 02:55:00,
2013-04-17 22:57:00,42.2,40.6,30.12,SE,134,1.0,12.0,94,0.00,,,0.55,Wunderground v.1.15,2013-04-18 02:57:00,
2013-04-17 22:58:00,42.2,40.6,30.11,South,172,1.0,12.0,94,0.12,,,0.56,Wunderground v.1.15,2013-04-18 02:58:00,
2013-04-17 22:59:00,42.2,40.6,30.11,ENE,72,7.0,12.0,94,0.12,,,0.56,Wunderground v.1.15,2013-04-18 02:59:00,
2013-04-17 23:00:00,42.3,40.7,30.12,ENE,78,3.0,3.0,94,0.12,,,0.56,Wunderground v.1.15,2013-04-18 03:00:00,
2013-04-17 23:02:00,42.3,40.7,30.11,NW,307,0.0,3.0,94,0.12,,,0.56,Wunderground v.1.15,2013-04-18 03:02:00,
2013-04-17 23:03:00,42.3,40.7,30.11,East,101,2.0,5.0,94,0.11,,,0.56,Wunderground v.1.15,2013-04-18 03:03:00,
2013-04-17 23:04:00,42.3,40.7,30.11,ENE,73,4.0,5.0,94,0.10,,,0.56,Wunderground v.1.15,2013-04-18 03:04:00,
2013-04-17 23:05:00,42.3,40.7,30.11,South,172,4.0,7.0,94,0.08,,,0.56,Wunderground v.1.15,2013-04-18 03:05:00,
2013-04-17 23:07:00,42.3,40.7,30.12,SSE,162,4.0,7.0,94,0.07,,,0.56,Wunderground v.1.15,2013-04-18 03:07:00,
2013-04-17 23:08:00,42.3,40.7,30.12,ENE,70,4.0,7.0,94,0.06,,,0.56,Wunderground v.1.15,2013-04-18 03:08:00,
2013-04-17 23:09:00,42.3,40.7,30.12,SSE,158,3.0,7.0,94,0.05,,,0.56,Wunderground v.1.15,2013-04-18 03:09:00,
2013-04-17 23:10:00,42.3,40.7,30.12,WSW,245,2.0,5.0,94,0.05,,,0.56,Wunderground v.1.15,2013-04-18 03:10:00,
2013-04-17 23:11:00,42.4,40.8,30.12,SSE,156,1.0,5.0,94,0.05,,,0.56,Wunderground v.1.15,2013-04-18 03:11:00,
2013-04-17 23:12:00,42.4,40.8,30.12,SW,236,3.0,5.0,94,0.04,,,0.56,Wunderground v.1.15,2013-04-18 03:12:00,
2013-04-17 23:14:00,42.4,40.8,30.12,East,96,4.0,12.0,94,0.04,,,0.56,Wunderground v.1.15,2013-04-18 03:14:00,
2013-04-17 23:15:00,42.4,40.8,30.11,South,187,2.0,12.0,94,0.00,,,0.56,Wunderground v.1.15,2013-04-18 03:15:00,
2013-04-17 23:16:00,42.4,40.8,30.11,ESE,107,4.0,12.0,94,0.00,,,0.56,Wunderground v.1.15,2013-04-18 03:16:00,
2013-04-17 23:17:00,42.4,40.8,30.11,SE,128,4.0,12.0,94,0.00,,,0.57,Wunderground v.1.15,2013-04-18 03:17:00,
2013-04-17 23:19:00,42.5,40.9,30.11,East,91,9.0,12.0,94,0.00,,,0.57,Wunderground v.1.15,2013-04-18 03:19:00,
2013-04-17 23:20:00,42.5,40.9,30.11,SE,140,2.0,7.0,94,0.00,,,0.57,Wunderground v.1.15,2013-04-18 03:20:00,
2013-04-17 23:22:00,42.5,40.9,30.11,East,82,3.0,7.0,94,0.00,,,0.57,Wunderground v.1.15,2013-04-18 03:22:00,
2013-04-17 23:24:00,42.5,40.6,30.11,SSE,153,3.0,8.0,93,0.09,,,0.58,Wunderground v.1.15,2013-04-18 03:24:00,
2013-04-17 23:25:00,42.5,40.6,30.11,East,82,2.0,9.0,93,0.21,,,0.58,Wunderground v.1.15,2013-04-18 03:25:00,
2013-04-17 23:27:00,42.6,40.7,30.10,East,100,4.0,9.0,93,0.21,,,0.59,Wunderground v.1.15,2013-04-18 03:27:00,
2013-04-17 23:29:00,42.6,40.7,30.10,ENE,58,5.0,9.0,93,0.26,,,0.60,Wunderground v.1.15,2013-04-18 03:29:00,
2013-04-17 23:30:00,42.6,40.7,30.10,ESE,122,7.0,10.0,93,0.27,,,0.61,Wunderground v.1.15,2013-04-18 03:30:00,
2013-04-17 23:32:00,42.6,40.7,30.10,South,177,1.0,11.0,93,0.30,,,0.61,Wunderground v.1.15,2013-04-18 03:32:00,
2013-04-17 23:33:00,42.6,40.7,30.10,West,269,4.0,11.0,93,0.30,,,0.62,Wunderground v.1.15,2013-04-18 03:33:00,
2013-04-17 23:34:00,42.6,40.7,30.10,SE,128,8.0,11.0,93,0.37,,,0.63,Wunderground v.1.15,2013-04-18 03:34:00,
2013-04-17 23:36:00,42.6,40.7,30.10,SSE,166,3.0,11.0,93,0.28,,,0.63,Wunderground v.1.15,2013-04-18 03:36:00,
2013-04-17 23:37:00,42.7,40.8,30.10,ESE,120,11.0,11.0,93,0.28,,,0.64,Wunderground v.1.15,2013-04-18 03:37:00,
2013-04-17 23:38:00,42.6,40.7,30.10,SSE,167,7.0,11.0,93,0.28,,,0.64,Wunderground v.1.15,2013-04-18 03:38:00,
2013-04-17 23:40:00,42.7,40.8,30.10,NE,46,0.0,4.0,93,0.31,,,0.65,Wunderground v.1.15,2013-04-18 03:40:00,
2013-04-17 23:41:00,42.7,40.8,30.10,SE,145,2.0,7.0,93,0.18,,,0.66,Wunderground v.1.15,2013-04-18 03:41:00,
2013-04-17 23:42:00,42.7,40.8,30.10,WSW,248,3.0,7.0,93,0.18,,,0.66,Wunderground v.1.15,2013-04-18 03:42:00,
2013-04-17 23:43:00,42.7,40.8,30.10,SSE,151,2.0,7.0,93,0.18,,,0.66,Wunderground v.1.15,2013-04-18 03:43:00,
2013-04-17 23:45:00,42.7,40.8,30.10,South,186,1.0,7.0,93,0.18,,,0.67,Wunderground v.1.15,2013-04-18 03:45:00,
2013-04-17 23:46:00,42.7,41.1,30.10,ENE,61,3.0,12.0,94,0.18,,,0.67,Wunderground v.1.15,2013-04-18 03:46:00,
2013-04-17 23:47:00,42.7,41.1,30.10,ESE,121,3.0,12.0,94,0.26,,,0.68,Wunderground v.1.15,2013-04-18 03:47:00,
2013-04-17 23:48:00,42.7,41.1,30.09,SE,136,1.0,12.0,94,0.26,,,0.68,Wunderground v.1.15,2013-04-18 03:48:00,
2013-04-17 23:50:00,42.7,41.1,30.09,ENE,69,2.0,3.0,94,0.19,,,0.68,Wunderground v.1.15,2013-04-18 03:50:00,
2013-04-17 23:51:00,42.7,41.1,30.08,ESE,105,3.0,13.0,94,0.18,,,0.69,Wunderground v.1.15,2013-04-18 03:51:00,
2013-04-17 23:53:00,42.7,41.1,30.08,ESE,103,1.0,13.0,94,0.18,,,0.69,Wunderground v.1.15,2013-04-18 03:53:00,
2013-04-17 23:55:00,42.8,41.2,30.08,WSW,258,3.0,13.0,94,0.13,,,0.70,Wunderground v.1.15,2013-04-18 03:55:00,
2013-04-17 23:56:00,42.8,41.2,30.08,SE,134,3.0,13.0,94,0.13,,,0.70,Wunderground v.1.15,2013-04-18 03:56:00,
2013-04-17 23:58:00,42.8,41.2,30.08,ESE,119,1.0,13.0,94,0.13,,,0.70,Wunderground v.1.15,2013-04-18 03:58:00,
2013-04-17 23:59:00,42.8,41.2,30.08,SSE,162,3.0,13.0,94,0.16,,,0.70,Wunderground v.1.15,2013-04-18 03:59:00,